GFSGL_500_spd_033.txt.gz
Wind_Speed
52 54 56 58 59 60 64 69 73 79 84 87 90 92 92 95 98 96 87 71 54 46 43 40 43 45 47 49 51 51 49 50 52 44 45 44 43 46 49 51 50 47 45
54 55 57 58 59 62 67 72 79 83 87 89 90 91 94 97 91 81 68 50 44 43 42 44 46 47 49 50 48 48 47 41 43 42 42 43 44 41 42 47 51 54 52
54 56 56 58 62 66 72 78 83 86 87 88 90 93 97 91 78 64 48 42 41 42 43 46 48 49 49 46 45 42 38 42 45 46 40 44 44 44 45 45 43 50 55
57 57 58 61 65 71 76 81 84 85 87 89 94 96 90 75 62 47 39 39 41 43 45 48 50 49 47 43 41 37 39 42 44 47 46 45 45 43 44 45 45 43 49
59 59 61 65 70 75 79 82 84 87 89 93 95 88 73 62 48 39 37 39 41 43 45 48 48 48 44 43 37 37 40 42 46 48 47 45 41 39 39 41 42 43 43
60 61 64 69 74 78 80 82 85 88 91 94 88 71 62 51 40 35 36 38 42 43 45 47 46 47 41 38 35 38 40 44 47 48 46 40 35 34 34 37 40 38 37
62 64 68 73 76 78 81 84 86 90 92 86 71 61 52 42 36 35 36 38 41 43 45 46 45 44 39 33 33 36 40 46 48 47 42 34 30 29 31 30 30 27 32
64 68 72 75 76 79 82 85 88 90 83 70 61 53 45 37 34 34 35 37 39 42 45 44 44 39 37 30 31 35 39 43 45 42 38 29 27 24 24 21 21 21 26
68 72 74 75 77 80 83 87 88 81 72 63 54 47 39 34 33 32 32 36 39 41 43 43 42 34 34 29 30 32 37 41 42 38 32 24 20 18 14 12 13 16 20
71 73 74 77 79 81 85 86 78 72 66 57 48 42 36 32 31 31 33 35 37 40 41 42 37 31 31 27 28 31 35 37 38 34 28 20 16 10 7 7 9 12 16
73 73 77 79 79 83 84 77 70 68 62 51 44 37 33 31 30 31 32 35 37 38 39 38 32 27 29 25 26 29 32 34 35 31 26 19 13 7 3 4 6 11 15
73 76 79 78 81 82 75 68 67 64 54 45 39 34 31 29 28 29 31 33 36 36 37 36 30 25 27 23 23 27 29 31 31 29 26 21 14 8 2 2 7 10 14
76 79 77 80 81 77 68 65 65 59 49 41 36 31 28 27 26 27 29 31 33 35 35 34 30 24 25 25 21 23 26 27 27 27 23 20 17 12 6 2 3 6 8
78 78 80 81 77 69 63 63 61 52 43 36 32 28 26 25 25 26 27 29 31 34 34 33 30 25 22 24 21 19 21 23 24 23 22 18 14 12 9 6 5 5 6
78 79 79 76 70 63 61 60 54 44 37 33 30 26 25 25 24 24 25 26 28 31 33 33 31 28 25 23 23 18 18 19 19 20 18 16 14 9 5 3 4 7 8
78 77 76 71 64 59 58 54 47 38 33 31 28 25 25 24 24 22 23 23 26 28 31 32 30 28 24 21 21 19 16 16 17 16 15 13 11 10 7 3 1 3 6
75 74 70 65 59 57 53 47 40 35 31 28 25 24 23 23 21 20 21 21 23 26 28 31 31 29 25 21 19 19 18 15 15 14 13 11 9 7 6 6 6 6 7
73 70 65 60 56 53 47 41 35 31 28 28 24 21 21 20 19 20 20 20 22 24 25 28 31 31 29 25 20 19 18 16 14 14 12 10 9 5 3 2 4 7 9
68 65 60 56 53 47 42 36 31 29 26 26 24 23 21 19 19 20 20 20 22 23 25 26 28 29 30 28 24 20 18 17 17 15 14 12 10 9 5 4 5 6 8
64 61 56 52 48 41 37 30 28 27 25 25 25 23 22 21 21 21 21 21 22 23 24 24 26 28 29 29 28 24 20 17 16 16 17 17 14 12 12 10 9 10 10
61 56 53 50 44 37 33 28 26 26 25 26 26 26 25 25 25 23 23 23 23 24 24 24 24 25 27 28 29 28 24 20 18 18 17 18 21 18 15 15 16 15 15
58 54 52 48 41 34 31 29 28 27 27 27 27 27 26 26 27 27 26 26 25 25 25 25 24 24 25 27 28 29 29 25 20 19 18 17 19 24 23 20 18 20 21
57 53 51 48 39 33 31 30 31 31 31 31 31 30 30 28 27 27 28 27 27 26 26 26 26 25 26 27 27 28 29 29 26 21 19 19 18 20 26 28 25 22 23
55 52 49 48 38 33 32 32 32 32 32 32 33 33 32 31 30 28 28 28 28 29 28 27 27 28 28 28 28 28 29 29 29 27 22 20 20 19 21 26 31 31 28
51 50 48 46 37 33 33 33 33 32 32 32 32 30 31 32 31 31 30 29 30 29 28 27 28 29 29 28 28 28 28 29 30 30 27 23 22 21 21 22 27 32 35
48 47 46 41 34 32 33 33 32 31 30 30 30 31 33 32 31 31 31 31 30 30 29 29 30 29 28 28 28 28 28 30 30 30 30 26 23 23 22 22 24 28 31

GFSGL_500_spd_036.txt.gz
Wind_Speed
49 51 54 57 57 60 62 62 63 66 70 75 80 84 86 88 90 93 96 97 80 68 56 46 43 44 45 46 49 50 48 47 46 37 39 39 40 41 43 45 44 46 51
52 55 57 58 60 63 64 64 66 70 75 80 83 84 87 88 92 96 92 75 64 53 43 41 42 44 45 48 50 47 46 43 45 38 37 41 41 42 43 45 45 45 46
55 58 59 60 62 64 65 67 70 75 79 82 83 85 87 91 95 87 71 61 50 41 39 41 43 44 46 48 47 46 43 41 38 40 39 42 46 48 48 48 47 46 46
57 59 60 62 63 65 66 70 74 78 79 82 83 86 90 93 84 70 60 50 41 37 38 41 43 45 47 47 45 43 41 36 37 41 41 46 50 51 51 48 47 46 45
58 60 61 63 64 65 69 73 76 78 81 81 85 89 91 81 71 61 51 42 36 37 39 41 42 45 47 46 46 39 38 35 38 41 45 49 51 51 48 43 41 40 42
60 61 62 62 64 68 72 75 76 79 80 83 87 89 80 71 63 52 44 37 36 37 38 39 43 44 45 45 43 38 34 34 38 42 46 49 47 45 41 36 34 34 35
60 61 61 64 68 71 75 75 79 80 82 86 87 79 71 66 55 45 39 35 35 35 37 40 42 44 43 42 36 35 32 34 38 43 45 46 43 38 33 29 28 29 31
60 61 65 68 71 75 76 77 80 81 85 86 79 70 68 58 47 40 35 33 33 35 37 40 41 42 41 37 33 31 29 33 36 41 44 42 36 29 25 23 22 20 21
61 64 70 71 74 76 77 80 82 83 84 80 71 67 61 50 41 36 33 32 33 34 36 38 39 39 38 33 30 27 27 30 34 39 39 37 29 23 18 14 12 11 14
63 71 74 75 77 77 78 81 83 83 80 72 67 64 54 43 37 34 32 30 31 33 34 36 36 35 33 29 28 25 24 27 32 35 36 32 25 19 13 10 7 6 8
71 75 76 77 78 77 78 84 84 82 75 67 63 57 46 38 34 32 29 29 29 30 32 34 34 32 29 26 26 25 22 25 29 32 32 28 24 16 12 8 5 4 6
72 75 79 80 80 79 81 83 80 76 68 63 58 49 40 35 32 29 27 27 28 28 29 31 31 30 28 25 23 24 21 23 26 28 28 26 23 18 12 8 4 2 5
74 76 79 81 80 80 83 80 77 70 62 58 52 42 36 32 29 27 26 26 26 26 28 29 30 29 27 25 23 24 22 20 22 25 26 25 21 18 16 11 5 3 5
75 79 81 82 82 81 79 75 72 62 57 53 45 38 34 31 27 26 25 25 24 25 25 27 29 29 27 25 22 21 22 18 19 22 23 23 21 18 15 12 9 5 1
77 82 84 83 82 79 75 70 63 56 51 46 40 35 32 29 26 25 24 24 23 23 24 25 27 30 30 27 23 21 20 19 16 17 19 20 20 18 15 11 7 4 2
79 82 82 83 78 72 69 64 56 51 46 40 36 32 30 26 24 23 23 22 22 22 22 24 25 28 30 29 25 22 20 19 16 15 15 17 18 17 15 11 7 4 1
76 81 82 77 70 65 62 57 52 46 40 36 32 29 27 23 22 22 22 21 22 21 21 22 24 25 28 29 28 24 20 19 18 16 14 14 15 15 14 11 8 4 0
81 81 76 69 64 59 55 52 48 40 36 32 29 26 24 24 22 22 22 22 22 22 22 22 23 24 25 26 28 28 24 20 18 16 15 14 13 13 12 10 7 5 2
80 72 66 62 59 56 52 48 44 36 32 29 27 26 24 23 23 22 23 23 23 22 23 23 23 23 23 24 25 27 27 24 20 18 16 14 14 13 12 11 8 5 2
68 63 61 60 55 53 51 46 41 34 30 28 26 25 24 23 24 23 24 25 25 25 24 24 24 24 23 23 23 24 26 27 24 20 18 16 15 16 15 13 12 10 8
62 59 57 56 55 53 49 45 40 33 31 30 30 29 28 27 27 25 24 25 26 27 26 25 25 25 24 24 23 23 24 25 27 25 20 19 16 16 19 18 16 15 14
59 59 57 56 55 51 48 44 39 32 31 30 31 32 31 31 30 30 28 26 26 27 27 26 25 25 25 25 24 24 24 24 25 26 25 21 19 17 18 22 23 20 19
61 58 56 55 52 49 47 44 38 32 31 31 32 32 32 32 31 30 29 28 28 27 27 27 27 27 27 27 26 25 25 25 24 25 25 25 22 20 19 20 24 27 25
58 56 53 52 49 47 46 43 36 31 31 31 32 32 32 32 30 29 29 29 28 28 27 28 28 28 27 28 28 26 26 25 25 25 25 26 26 22 21 21 22 25 30
56 53 51 48 46 44 43 40 34 31 31 31 31 31 30 29 28 28 29 29 28 28 29 28 28 28 27 28 28 27 26 27 26 25 26 26 27 26 22 21 22 24 26
54 49 48 46 44 42 40 37 34 32 32 32 33 32 32 30 29 29 29 29 29 30 30 30 30 30 30 30 29 28 26 27 27 27 27 27 28 28 25 22 22 22 25

GFSGL_500_spd_039.txt.gz
Wind_Speed
50 53 54 56 56 59 61 62 65 65 68 68 70 73 77 81 83 84 84 87 91 89 80 72 62 53 46 45 46 48 49 52 53 45 44 44 43 42 42 43 43 44 42
54 56 56 55 59 61 62 64 66 67 67 69 73 77 80 82 84 83 86 91 88 79 70 60 50 43 42 45 47 48 50 51 50 47 40 40 39 41 42 43 46 49 48
56 57 59 58 60 62 64 65 67 66 69 73 76 80 81 84 85 86 90 88 77 69 58 49 42 40 42 45 46 49 50 49 47 46 38 36 39 42 44 48 51 53 52
57 57 58 60 61 63 64 66 66 70 73 76 78 82 82 82 85 89 89 78 71 59 49 42 39 40 42 44 47 49 49 46 43 41 36 36 41 44 49 52 53 52 50
57 57 59 60 62 63 64 66 69 74 77 78 78 80 82 84 85 87 78 72 61 50 43 39 39 40 41 45 48 48 46 44 38 37 34 38 43 48 51 52 49 44 40
56 57 59 62 62 63 65 68 73 79 80 82 81 82 83 86 85 80 72 65 52 44 39 37 38 41 44 45 45 44 44 39 35 34 35 40 44 48 49 46 40 37 32
56 58 60 60 62 64 67 72 77 82 82 82 81 84 85 89 83 72 66 55 44 39 37 36 39 42 43 44 42 42 39 36 34 31 35 39 42 44 44 36 34 31 27
58 59 60 60 64 68 71 76 80 82 81 84 85 86 88 89 72 66 57 46 39 36 35 36 38 41 41 41 40 39 35 34 31 31 34 38 41 40 36 31 27 23 20
58 59 61 63 68 73 74 80 83 80 83 87 88 87 89 78 64 59 49 40 36 33 33 34 36 39 39 39 37 35 32 33 29 29 31 35 37 35 31 25 22 17 16
56 62 64 67 72 79 83 79 78 81 85 89 91 88 78 66 60 50 42 36 33 31 32 34 34 34 36 36 34 31 28 30 26 26 29 32 34 31 27 21 17 15 13
58 60 65 75 80 84 81 82 78 78 83 88 91 81 67 59 53 42 37 34 31 30 31 32 32 32 34 33 32 29 27 26 24 24 27 29 30 28 25 19 15 12 10
65 67 66 75 82 78 77 77 79 82 84 85 82 69 59 54 46 39 36 32 30 29 30 29 29 29 31 31 30 28 26 25 24 22 24 26 27 27 22 19 14 11 9
72 76 79 78 75 72 69 77 80 78 80 81 71 60 54 48 41 36 34 31 29 28 29 27 27 27 29 31 29 28 26 25 24 21 21 23 25 25 23 18 15 11 8
75 77 68 72 71 71 78 78 74 75 76 69 62 55 49 43 38 35 32 30 29 28 27 26 26 26 27 29 29 27 25 23 23 22 19 21 22 23 23 20 15 11 9
67 66 71 70 72 76 75 72 74 69 66 61 55 50 43 38 35 33 31 28 26 26 26 25 25 25 26 28 29 29 27 23 22 21 19 18 20 21 21 20 17 12 8
71 76 78 75 78 77 72 70 65 62 58 54 50 45 38 35 33 30 28 27 25 24 25 25 25 25 25 26 28 29 29 26 22 21 20 17 17 18 19 18 17 14 9
78 81 78 77 71 71 70 64 58 56 52 50 47 40 34 32 30 29 28 27 25 24 24 25 25 25 25 26 26 27 28 28 26 21 20 19 17 16 16 17 15 14 10
73 76 75 70 70 70 64 59 56 54 53 47 43 36 32 29 28 28 28 28 26 26 26 25 25 25 26 26 25 25 26 27 27 25 20 18 17 16 15 14 14 12 10
75 73 72 72 68 63 58 56 55 53 50 45 42 36 31 29 28 27 27 27 27 27 27 27 26 26 26 26 26 25 25 25 25 26 25 21 18 17 16 14 13 12 10
75 74 72 68 62 59 57 55 53 50 47 44 41 35 33 31 30 31 30 29 28 27 27 27 27 27 26 25 26 25 24 23 24 24 25 24 20 17 17 16 15 12 11
73 69 65 63 60 56 54 51 50 49 46 43 41 35 32 31 30 31 30 31 30 30 28 27 27 27 27 26 25 25 24 23 24 24 24 25 24 20 17 17 17 17 14
68 65 64 62 59 56 54 52 49 46 44 42 40 34 32 32 31 31 32 32 31 29 28 28 28 28 28 27 27 27 26 24 24 24 23 24 24 24 21 18 19 19 20
63 60 59 57 57 54 52 49 47 45 43 41 38 32 32 32 32 32 32 31 30 29 29 29 29 28 27 27 28 27 27 25 25 25 24 23 23 24 24 21 19 21 21
58 57 56 54 51 49 48 45 44 42 41 39 35 31 31 32 32 31 31 30 29 29 28 28 28 28 27 27 27 27 27 25 25 26 25 24 24 24 25 25 22 21 23
60 57 54 52 49 47 45 43 42 41 39 37 33 31 31 32 32 33 32 31 30 29 29 28 28 28 29 28 28 28 29 28 27 27 25 25 24 25 26 26 25 23 23
56 54 53 51 49 48 46 44 42 40 38 36 33 32 32 32 33 34 34 34 33 32 31 31 30 31 31 30 30 29 30 30 27 27 27 25 26 26 26 27 26 26 23

GFSGL_500_spd_042.txt.gz
Wind_Speed
50 52 54 55 57 58 58 55 61 63 64 66 67 67 69 72 77 79 80 82 81 84 88 92 83 74 67 57 49 44 44 48 50 47 48 48 48 48 45 44 43 43 43
51 53 54 57 58 58 58 57 60 62 65 66 66 67 70 75 77 76 80 81 84 86 93 88 74 66 56 48 43 42 45 48 51 51 48 45 46 44 43 41 41 43 43
53 54 57 58 58 57 56 58 60 62 65 66 68 70 74 76 77 77 81 85 87 91 97 79 68 56 47 41 40 42 45 48 50 51 45 44 42 40 39 39 41 43 48
53 56 57 57 56 57 58 60 62 65 67 68 71 74 78 78 76 79 86 88 90 93 88 70 57 47 41 39 40 43 47 48 48 46 44 39 38 36 36 39 42 47 51
55 56 57 55 56 58 60 61 64 67 69 72 78 80 79 76 75 82 86 91 90 80 72 61 47 42 38 38 41 43 47 46 45 43 40 37 34 34 37 41 46 48 47
55 55 53 55 57 60 60 62 65 69 72 78 82 82 81 77 75 82 89 89 78 69 65 50 42 39 37 38 40 42 42 43 41 39 35 34 32 35 39 43 45 45 37
53 53 56 57 60 60 63 64 70 81 83 82 82 81 72 78 81 85 85 82 69 65 54 42 38 36 35 38 41 41 42 41 40 36 34 32 31 35 38 40 41 38 33
54 56 57 58 60 64 65 68 72 73 78 87 83 79 80 83 81 78 74 74 63 57 45 38 34 34 34 37 38 39 39 40 37 35 34 30 31 34 37 37 36 30 28
57 57 56 59 62 66 70 76 75 80 81 78 77 79 84 83 73 71 70 69 57 46 39 35 32 32 35 36 37 38 37 37 35 32 32 27 29 32 34 33 32 26 23
57 55 61 67 71 69 76 79 80 79 74 75 76 83 83 79 75 67 66 58 49 40 36 32 29 31 33 34 33 35 34 33 31 28 29 25 27 30 31 30 29 24 20
58 59 58 68 74 84 81 77 70 73 77 80 78 76 71 71 68 62 56 50 42 36 32 30 29 29 30 32 32 34 34 31 29 26 26 23 25 27 28 28 26 23 19
62 60 61 75 79 80 82 75 73 77 77 76 73 72 69 62 57 55 51 45 37 33 30 28 28 29 29 30 30 33 33 32 30 27 26 23 22 24 26 25 23 22 20
65 63 66 75 83 84 77 76 77 75 70 68 68 63 57 54 54 50 43 39 35 32 28 27 27 27 27 28 29 30 32 33 32 27 24 23 20 22 23 23 22 18 17
67 72 72 78 78 75 77 75 79 78 73 64 59 54 52 52 51 47 40 35 32 30 27 25 25 25 26 26 27 28 30 31 31 29 24 23 20 19 21 22 22 19 16
69 73 75 75 76 79 79 74 69 65 61 59 56 53 51 49 46 41 37 33 29 27 27 25 25 25 25 25 26 26 28 30 30 30 26 22 21 18 18 20 20 19 15
69 73 76 79 77 73 72 71 70 65 60 56 53 53 49 46 42 38 33 30 29 27 26 24 25 25 24 24 25 25 26 27 29 29 28 24 20 19 16 17 17 17 16
71 75 77 73 71 72 73 72 67 59 57 54 50 48 47 43 41 36 32 29 28 27 27 26 25 25 25 25 25 25 25 26 27 27 27 27 22 18 17 14 15 14 14
72 70 68 66 70 75 75 71 65 61 55 50 48 45 44 42 39 35 32 29 29 28 27 26 27 27 26 26 26 25 26 25 25 25 25 25 25 21 18 15 13 13 12
66 65 67 71 75 76 69 64 61 57 53 49 46 44 42 41 38 35 33 31 30 31 30 28 28 27 27 27 27 26 26 25 25 23 24 24 24 24 20 16 14 12 11
66 69 74 76 81 71 64 59 56 54 51 48 46 43 41 40 38 34 31 31 30 29 29 29 28 28 27 26 26 27 26 25 25 23 23 24 23 23 23 19 15 13 12
73 75 76 82 73 64 60 57 55 53 51 46 43 42 41 39 37 34 30 30 30 30 30 30 29 27 27 26 26 26 26 26 25 24 22 22 23 22 22 21 18 14 13
77 78 81 76 65 61 60 57 54 51 48 45 40 39 39 38 36 32 29 30 31 30 29 28 27 27 27 27 26 26 26 26 26 25 23 23 22 22 21 21 20 18 15
82 83 74 67 63 59 57 54 51 49 46 43 40 38 38 36 35 30 28 29 31 30 30 29 27 27 27 26 26 26 25 25 25 24 23 23 23 22 21 21 20 20 18
80 74 67 61 56 55 55 50 48 47 45 43 41 39 37 35 32 30 29 29 30 30 30 30 28 27 27 26 25 25 26 25 25 24 23 24 24 22 22 20 21 21 21
71 63 58 54 52 51 52 49 47 45 43 42 40 38 36 34 31 29 29 29 30 30 30 31 31 30 29 29 28 27 27 27 26 25 25 25 24 22 22 21 22 22 23
62 59 56 52 49 48 46 45 43 42 40 39 38 36 35 33 31 29 29 29 30 30 30 30 30 30 30 31 31 30 30 30 29 28 26 26 25 24 24 24 23 23 24

GFSGL_500_spd_045.txt.gz
Wind_Speed
44 45 49 51 50 52 53 56 57 48 60 60 59 61 64 65 69 72 74 78 83 86 82 81 85 87 85 74 66 58 51 48 43 39 40 43 45 46 45 43 43 41 40
48 48 51 51 48 53 56 57 56 51 58 60 61 63 65 65 71 78 81 85 85 80 83 84 90 90 72 63 58 48 45 43 43 42 42 44 45 43 43 42 39 38 38
50 50 50 46 54 56 58 57 55 56 59 61 62 66 68 72 76 80 81 84 86 83 83 87 89 85 68 54 48 44 41 41 43 44 42 41 41 41 40 38 37 35 35
52 52 54 56 56 58 56 56 57 59 61 63 64 68 72 78 87 84 85 85 82 85 86 87 85 71 58 47 42 39 38 39 42 42 41 41 40 39 37 36 32 34 35
53 55 57 56 56 55 58 59 59 59 61 68 70 73 77 80 82 84 82 78 84 80 82 77 67 62 49 43 38 36 36 38 38 39 39 39 37 33 34 31 31 33 38
55 55 56 54 55 58 60 60 59 63 64 66 72 76 84 83 82 78 78 82 76 73 69 61 56 51 43 39 34 34 36 36 35 37 36 36 32 32 30 29 31 35 36
53 53 53 55 57 57 59 58 67 72 79 81 81 84 79 78 75 78 79 74 71 63 57 55 49 42 39 34 32 33 35 36 38 37 36 34 30 31 27 29 33 36 36
53 54 55 55 56 57 60 62 66 68 81 85 84 78 76 74 78 76 71 71 63 55 52 49 43 37 35 30 30 31 33 35 37 37 35 32 30 29 27 29 32 33 33
55 55 56 56 56 62 69 69 68 74 75 83 80 75 76 79 74 73 64 59 54 50 46 44 39 33 31 28 29 29 31 33 36 35 33 31 28 27 26 28 32 33 29
54 56 57 60 58 61 70 72 73 76 81 78 83 77 79 77 73 61 54 52 48 46 43 39 34 31 28 27 27 27 29 31 32 32 32 30 27 26 25 27 30 31 28
55 58 62 64 64 68 73 76 79 78 80 78 80 78 70 64 58 53 50 48 45 43 38 35 32 28 27 26 26 26 27 29 30 30 30 27 26 25 23 26 28 29 26
60 63 64 65 68 68 72 74 76 77 78 77 69 66 61 56 53 50 48 46 44 40 34 32 29 26 25 24 24 26 26 28 30 31 31 28 24 25 22 23 26 27 26
66 68 68 69 70 71 71 73 77 77 71 68 66 65 60 53 50 50 46 42 40 35 32 28 26 25 24 23 23 24 25 27 28 30 31 30 25 23 21 21 23 24 24
65 66 69 71 71 71 73 75 71 67 66 70 72 67 60 53 50 48 43 40 38 32 30 28 26 25 23 22 23 23 24 25 27 28 29 30 28 22 21 18 20 22 23
65 67 69 71 72 72 69 65 66 70 71 73 74 68 59 52 47 44 41 38 37 31 25 26 26 25 24 23 23 23 24 25 25 26 27 28 28 25 20 18 16 19 20
67 69 70 69 67 64 64 64 69 73 72 74 68 62 55 51 46 41 38 37 35 30 24 24 23 23 24 24 24 24 24 24 25 25 25 26 26 26 21 18 15 15 17
70 70 68 66 66 64 64 67 69 67 72 67 60 56 52 49 46 42 38 35 33 31 27 26 25 24 24 23 24 24 25 25 25 24 23 24 24 25 24 19 16 13 14
70 67 64 63 65 66 69 72 74 75 71 59 53 52 50 48 44 41 38 35 32 31 27 27 27 27 26 25 25 24 25 25 25 24 23 22 22 22 23 23 17 14 12
70 67 65 66 67 71 75 77 80 75 67 58 52 49 50 46 43 39 37 35 33 31 27 26 27 26 25 25 26 25 24 25 25 24 22 21 21 21 21 21 20 15 12
67 67 69 72 74 76 79 81 77 68 63 58 54 49 46 44 40 36 35 34 32 31 28 26 25 26 26 25 25 25 24 24 24 24 23 22 21 20 20 20 19 19 14
69 70 71 74 78 81 83 75 69 65 60 54 51 49 45 42 39 35 34 33 32 29 29 29 27 26 25 23 23 24 24 24 24 24 23 22 21 20 19 18 18 18 17
73 74 77 80 83 81 73 66 60 58 54 49 45 46 44 41 39 36 34 32 31 29 28 28 27 26 25 24 23 23 23 22 22 22 22 21 20 19 19 18 18 17 16
77 80 81 84 78 72 63 57 56 55 53 49 45 43 41 39 38 36 34 32 30 29 29 29 27 25 24 25 24 23 22 22 22 23 23 21 21 20 19 19 18 17 16
83 85 82 74 68 62 57 52 50 49 49 46 43 41 39 37 36 35 34 32 30 28 28 28 28 27 26 26 26 25 25 24 23 25 24 23 22 22 21 20 18 18 17
84 78 74 68 63 59 55 51 47 45 45 43 41 39 38 36 34 33 32 31 30 29 27 26 26 28 28 27 26 27 27 27 26 26 26 25 24 23 22 21 20 19 19
78 73 68 63 59 55 52 49 47 46 43 41 40 38 36 34 32 31 30 30 29 27 26 26 26 27 26 25 25 25 26 27 28 28 28 29 27 25 24 23 21 21 22

GFSGL_500_spd_048.txt.gz
Wind_Speed
41 40 42 45 47 48 49 49 53 56 60 62 61 60 62 63 66 67 69 72 75 78 82 87 87 81 79 76 77 77 75 68 61 50 41 41 40 41 42 43 43 43 42
45 45 48 50 46 50 51 54 56 60 60 59 62 64 64 65 67 72 75 76 79 82 86 81 79 78 76 75 70 69 66 59 52 45 39 39 40 41 40 41 42 42 41
41 47 50 47 57 53 57 53 56 58 60 60 63 63 62 66 73 78 84 89 87 84 80 78 79 78 75 71 66 63 57 52 45 41 38 40 39 39 38 39 39 38 37
44 42 43 56 52 57 55 54 58 61 63 62 63 64 68 71 74 79 87 88 84 78 78 79 81 79 68 61 60 56 49 43 39 38 37 38 40 40 40 38 33 36 35
45 49 55 48 56 55 57 59 60 61 61 62 66 70 75 77 80 82 84 83 76 76 83 81 72 65 60 58 54 48 44 39 36 35 34 36 36 36 36 33 32 30 31
45 53 51 50 56 57 59 59 58 60 62 65 74 76 76 80 83 83 79 75 80 83 76 68 59 57 55 54 47 41 39 36 34 33 32 33 33 34 32 30 30 27 28
50 49 51 54 57 58 58 58 59 64 67 67 73 80 83 86 82 79 78 81 77 69 61 57 57 55 53 49 41 37 35 34 33 31 31 34 33 34 30 29 28 27 30
49 53 54 55 56 58 59 63 67 71 70 73 76 80 84 81 79 79 77 69 62 60 57 55 54 52 46 42 37 34 32 31 31 32 33 34 33 31 29 28 26 27 30
52 52 54 56 57 60 62 64 70 73 75 79 80 79 77 78 79 71 68 66 62 56 54 52 51 47 42 38 34 31 29 29 29 30 32 33 32 30 27 26 25 25 29
51 52 54 57 62 64 65 68 71 72 76 78 77 76 78 66 69 65 67 66 58 53 50 48 46 40 38 35 31 29 27 27 27 30 31 32 32 31 28 26 24 25 28
52 54 57 59 65 66 66 68 71 74 77 77 75 68 65 65 66 66 68 62 53 49 47 45 41 37 35 31 29 27 26 25 26 27 29 30 30 30 28 26 25 23 27
55 59 62 62 63 66 68 70 72 74 75 71 67 63 63 68 67 69 68 59 51 46 44 42 37 34 32 29 28 26 26 24 25 25 27 29 30 30 30 26 24 24 24
60 61 61 62 65 68 70 72 74 74 73 68 64 62 65 68 70 71 64 54 49 45 42 39 35 32 30 28 27 25 25 24 24 25 26 28 29 29 30 27 24 22 23
61 62 63 65 68 71 73 74 73 70 68 67 65 66 69 70 71 68 58 50 46 43 41 36 33 31 28 26 26 25 25 24 24 24 25 27 28 28 29 27 24 22 22
62 63 66 69 71 73 74 73 70 67 68 67 69 71 73 72 69 63 54 49 45 41 39 35 32 30 28 25 24 25 24 25 24 24 25 26 26 26 27 28 24 22 19
64 67 70 72 74 75 74 71 68 67 68 71 74 76 76 73 65 58 51 48 43 40 36 34 34 30 29 27 26 25 23 24 25 25 25 25 24 24 25 26 26 20 18
68 71 73 74 74 74 72 71 70 66 69 72 76 78 77 70 62 55 50 46 41 39 34 34 33 31 30 29 28 26 25 25 24 25 25 24 24 22 23 23 24 23 17
72 75 77 78 80 79 77 74 73 73 74 75 77 77 69 64 59 52 47 44 39 37 33 32 32 31 28 27 27 25 25 26 25 24 24 23 23 22 22 21 21 22 19
76 77 79 80 79 76 74 74 75 77 80 80 77 70 62 57 53 48 44 41 37 34 33 31 31 30 29 25 25 25 25 25 24 24 24 23 22 21 21 20 20 20 20
78 80 81 80 78 76 77 79 80 82 80 76 68 61 55 52 47 43 42 38 35 33 32 31 30 29 27 25 25 25 24 22 22 23 23 22 21 20 20 19 19 19 18
82 81 81 78 77 79 82 84 83 79 70 65 58 54 52 49 42 40 37 36 34 33 32 31 30 28 26 26 25 25 23 22 23 23 22 20 19 19 18 18 18 17 17
83 81 78 79 81 83 83 81 77 69 62 58 53 50 48 44 38 37 36 35 34 33 32 31 30 28 27 27 26 25 23 23 22 21 20 19 19 19 19 18 18 17 16
78 77 80 83 81 79 77 70 61 55 52 49 47 45 44 38 35 35 35 34 33 32 31 32 30 28 28 28 27 25 23 23 23 22 21 20 20 20 20 19 18 18 16
77 82 79 78 75 68 56 52 50 48 46 46 46 45 45 40 36 33 33 33 32 31 30 31 30 29 28 27 26 25 26 25 24 24 24 23 22 22 21 21 21 20 18
80 77 76 73 61 53 52 53 52 49 45 42 42 43 42 41 39 36 34 32 31 30 30 30 28 29 29 26 24 26 26 26 25 25 26 25 25 25 25 24 22 22 20
77 73 70 61 53 53 53 52 52 52 49 46 44 43 40 38 38 36 34 32 31 30 29 29 28 28 29 27 24 23 23 23 24 24 24 25 26 27 27 27 25 23 23

GFSGL_500_spd_051.txt.gz
Wind_Speed
40 44 41 44 46 49 53 50 51 56 41 44 65 64 66 69 69 70 70 72 75 78 81 83 85 87 88 85 78 81 85 86 81 70 69 68 59 53 50 47 46 44 42
40 41 46 50 49 50 51 49 51 47 51 66 64 65 68 69 69 69 73 77 82 86 87 87 91 89 82 79 81 85 77 70 70 69 63 56 52 47 45 43 42 42 42
40 44 43 46 50 53 52 55 59 61 61 62 64 66 67 68 71 74 78 80 83 88 91 92 83 78 78 85 83 74 67 67 67 62 54 50 45 44 42 39 40 39 41
37 41 45 47 49 49 55 61 64 60 62 64 64 66 68 71 74 78 81 84 86 89 93 86 81 84 87 77 70 65 64 63 60 54 48 43 41 41 41 40 37 38 38
43 49 46 48 52 57 60 62 60 63 63 64 65 68 71 77 80 84 86 87 92 88 84 87 86 77 66 64 64 62 60 57 53 47 41 38 38 39 39 38 36 33 33
42 43 51 53 58 58 56 60 60 62 63 64 68 74 73 79 81 87 86 89 87 85 81 73 70 67 63 62 60 58 57 52 46 41 36 37 36 36 36 35 34 33 30
46 49 52 53 55 56 58 60 60 62 65 68 73 74 75 78 81 84 86 83 78 71 69 65 69 65 59 58 56 55 51 46 41 37 34 36 34 33 33 33 33 31 31
49 50 50 54 56 57 57 58 61 62 68 74 77 75 75 78 80 81 79 74 66 65 66 69 69 59 56 54 52 50 45 42 38 35 34 33 33 32 34 32 30 29 31
49 51 53 55 55 56 57 61 65 66 68 70 73 75 77 78 78 77 73 65 64 66 69 71 65 56 53 50 49 45 41 39 35 33 33 32 32 33 32 30 28 27 27
50 52 53 55 55 58 62 64 64 66 69 71 73 77 77 77 75 72 66 65 67 69 71 69 60 51 49 47 45 40 37 35 32 32 32 31 31 32 32 32 29 25 26
52 53 50 52 58 62 62 63 66 68 70 73 76 76 76 74 69 67 66 66 68 69 70 64 55 49 46 45 42 37 35 33 31 30 30 30 30 30 31 33 32 28 24
51 51 54 58 60 60 63 65 67 71 73 75 76 76 74 70 67 67 67 68 70 71 68 58 51 47 44 43 40 35 33 31 30 29 29 29 28 28 29 32 32 32 26
53 56 58 58 60 62 64 68 71 75 76 77 79 78 73 69 68 68 68 70 72 71 64 53 48 45 43 41 38 33 32 31 30 29 29 28 27 26 27 30 32 31 27
57 59 60 61 63 66 70 73 76 77 78 80 80 77 73 69 68 69 71 72 73 69 59 50 45 44 41 39 36 32 30 28 29 29 29 28 27 26 26 27 29 29 29
60 61 61 63 67 70 73 75 78 79 81 82 80 77 74 71 69 72 75 75 70 62 55 47 43 42 40 37 35 32 30 29 28 28 27 27 27 26 26 26 26 28 28
62 62 64 67 71 74 77 79 80 81 81 80 78 77 75 75 76 76 75 73 64 56 50 43 40 39 37 35 33 33 32 31 30 29 27 26 26 26 26 25 24 25 25
62 64 67 71 74 76 79 83 86 85 83 77 76 77 81 81 78 74 68 62 58 50 45 40 38 37 36 33 32 32 33 33 30 29 28 27 25 25 24 24 23 23 25
65 68 72 76 80 83 87 90 90 88 84 78 77 80 78 75 71 63 58 55 51 45 41 38 35 34 33 32 31 30 31 31 28 27 27 26 24 24 24 23 22 21 22
69 72 76 79 83 87 89 88 85 83 84 82 78 75 72 64 58 54 50 49 44 41 37 35 33 31 31 32 30 29 29 28 27 26 25 23 21 22 22 22 21 19 19
72 76 80 84 87 88 86 83 82 82 77 75 67 58 53 49 44 43 43 41 38 37 35 33 32 31 30 30 29 27 27 26 25 25 23 22 21 21 20 20 19 18 17
76 80 84 87 87 84 82 82 78 76 71 60 54 54 51 46 41 39 38 34 33 35 34 31 31 31 30 29 28 27 26 25 25 24 22 21 20 19 18 18 18 17 16
81 84 86 84 81 81 79 77 74 69 59 52 52 52 50 46 42 38 35 31 30 32 33 31 30 30 30 29 27 26 26 25 26 24 22 21 19 18 17 17 17 16 17
83 82 79 77 78 75 74 72 67 58 51 52 51 52 52 49 44 39 33 31 31 32 31 30 29 29 29 28 27 28 27 27 27 26 23 22 20 20 19 18 18 17 17
77 73 74 76 73 71 69 66 58 52 52 51 53 54 53 50 46 42 38 32 30 30 30 28 28 28 28 28 27 28 29 28 28 26 25 25 23 23 22 21 20 20 19
70 74 74 71 69 67 65 61 55 54 53 53 54 55 51 48 46 45 40 38 32 30 30 29 28 28 29 28 28 28 28 29 28 26 26 26 24 23 24 23 23 23 22
73 73 70 70 70 66 63 59 55 55 55 56 57 55 49 44 42 44 43 40 38 33 31 30 28 27 28 28 27 28 28 28 27 26 24 23 22 22 23 24 24 24 24

GFSGL_500_spd_054.txt.gz
Wind_Speed
32 34 35 38 39 38 40 44 48 51 57 60 57 59 58 67 67 71 74 74 74 77 79 83 88 88 94 92 92 90 88 87 81 74 71 70 67 66 62 57 54 50 48
34 34 37 39 41 42 43 44 54 55 59 57 61 65 67 67 71 72 71 73 77 80 83 85 86 89 91 89 86 84 81 77 72 68 67 63 60 58 54 50 47 46 43
38 37 39 40 45 45 46 49 59 61 62 64 70 69 67 72 70 72 73 76 80 83 84 85 85 86 85 83 81 74 71 71 68 64 60 56 53 50 45 44 43 41 40
36 38 40 45 46 49 49 61 59 61 64 60 65 69 70 69 71 74 76 81 86 82 82 83 83 83 81 76 71 71 71 66 63 59 55 51 48 43 42 41 38 40 40
34 42 42 42 44 52 52 57 58 61 61 62 65 67 68 70 73 76 80 83 82 82 82 82 82 80 75 71 70 71 67 61 58 54 51 47 42 39 38 38 38 38 38
39 42 46 44 45 51 54 57 57 61 61 62 63 67 70 74 75 76 78 81 81 81 82 82 79 72 69 69 70 69 61 57 53 50 47 43 38 36 35 35 37 38 36
45 47 48 49 51 52 55 57 58 61 60 56 65 71 73 73 74 76 78 79 81 81 82 78 72 69 68 69 69 65 57 53 49 48 44 40 35 34 33 32 34 36 39
48 49 50 51 53 55 56 58 59 60 61 65 68 71 71 74 75 78 79 80 82 81 77 72 68 67 68 69 68 58 53 49 46 45 40 37 33 32 31 31 31 33 36
49 50 51 52 54 55 57 57 57 56 70 70 70 71 73 75 77 80 82 82 81 76 72 70 69 67 69 70 64 54 50 47 43 42 38 35 32 30 30 30 31 32 31
50 51 52 53 54 55 57 58 60 63 67 68 70 73 74 76 81 82 83 82 79 75 71 69 70 68 70 69 59 50 47 45 41 39 36 34 30 29 29 30 30 30 30
51 53 54 54 55 56 57 59 62 65 66 69 72 74 77 80 81 82 81 80 78 74 70 69 70 71 71 65 55 47 45 42 39 37 34 33 30 29 29 30 31 31 30
52 53 53 55 56 58 61 63 65 66 68 71 74 76 79 82 84 83 81 80 77 73 69 69 70 71 69 59 50 45 43 39 37 35 32 31 29 29 29 29 31 31 32
53 53 55 57 59 61 64 65 66 68 71 75 78 80 82 84 84 82 81 78 75 74 72 72 72 69 62 53 47 43 41 36 34 32 30 29 28 29 29 28 30 30 31
53 55 57 59 62 65 66 67 68 72 76 79 82 85 88 89 87 80 78 79 79 79 77 73 68 62 53 47 43 41 39 34 32 30 29 28 27 28 28 27 27 28 28
55 57 60 63 65 67 67 69 72 76 80 84 87 90 92 90 83 79 79 79 79 76 73 67 57 54 46 43 41 39 37 33 31 30 27 28 28 28 27 27 26 26 26
56 59 63 66 68 68 69 71 74 77 81 85 89 89 86 86 85 80 76 74 70 64 60 55 53 50 43 41 40 37 35 32 31 30 27 28 28 28 27 26 25 25 24
60 64 67 68 68 69 72 75 77 80 85 88 86 83 83 82 78 75 68 57 54 51 48 49 48 46 41 38 37 35 32 31 30 28 28 27 26 26 26 25 24 24 23
67 70 70 69 70 73 76 80 84 88 89 85 80 78 77 76 70 60 53 53 48 43 39 40 41 40 38 36 34 33 31 29 28 27 27 26 25 25 23 23 22 21 21
70 70 70 72 73 76 80 84 88 87 85 82 77 72 70 65 54 50 50 48 44 39 35 34 34 36 34 34 32 31 29 27 27 25 25 24 23 22 21 21 21 19 19
71 71 71 74 77 80 84 85 84 81 80 77 73 70 63 52 46 47 47 48 45 38 34 31 33 35 33 31 30 29 27 26 25 24 23 22 21 20 21 21 19 17 16
70 71 74 77 81 83 83 80 79 79 75 72 69 66 58 51 47 47 49 50 46 38 33 31 32 31 28 27 28 27 27 25 24 23 23 22 21 20 19 18 17 16 15
71 74 78 80 82 79 77 78 77 75 73 71 65 61 56 52 50 50 50 49 46 40 33 29 29 29 27 26 27 26 25 23 24 24 24 22 21 20 19 18 16 15 15
74 77 80 79 76 74 76 76 75 75 74 68 61 58 55 53 51 51 50 47 44 41 37 31 29 28 27 26 26 26 24 23 24 26 25 23 22 20 20 19 17 17 16
77 78 76 72 72 74 73 74 75 76 71 63 58 56 55 54 52 51 48 44 42 41 39 35 29 28 26 25 25 26 26 25 25 27 27 25 23 21 21 20 19 20 18
76 72 70 71 70 70 73 75 75 70 63 58 56 55 54 54 53 50 46 43 38 38 41 39 32 26 26 23 24 26 26 25 25 25 26 26 24 22 22 22 21 21 20
68 67 70 67 67 71 74 74 67 63 59 56 54 53 52 52 50 46 44 41 35 34 40 42 39 30 25 24 24 27 27 26 25 25 26 25 24 22 22 21 20 21 21

GFSGL_500_spd_057.txt.gz
Wind_Speed
28 30 33 32 34 37 36 33 37 38 38 49 48 53 58 65 63 62 65 70 76 76 75 77 81 81 84 85 85 86 87 87 84 77 75 73 73 68 61 55 52 48 45
34 33 34 37 40 34 33 35 38 42 35 53 54 58 62 68 69 63 71 77 73 74 78 81 81 81 82 85 85 86 85 81 77 73 71 72 66 60 54 50 47 44 41
35 36 38 38 33 38 41 42 41 31 49 55 62 65 66 65 55 62 77 72 72 79 81 79 81 82 83 85 86 84 80 75 71 72 70 68 60 54 49 46 42 39 39
37 37 37 38 37 41 38 42 48 49 53 61 60 62 56 64 67 69 67 72 81 82 80 80 81 83 85 85 85 79 75 70 68 70 71 62 55 49 46 41 37 37 37
35 36 36 39 41 43 44 49 49 51 52 54 60 61 63 67 65 63 68 77 81 80 80 81 83 85 85 83 80 75 70 68 67 69 68 57 51 46 43 38 35 34 36
35 37 38 40 42 44 46 50 51 52 54 56 61 61 63 68 69 69 77 84 80 81 81 83 85 86 84 81 76 71 68 67 67 69 63 52 48 44 39 36 33 33 34
37 39 42 43 45 48 50 52 53 54 56 58 61 60 61 63 71 77 82 81 81 82 83 86 87 86 82 78 73 68 66 65 67 68 57 50 45 42 37 34 33 32 33
40 42 44 46 49 51 52 53 55 56 57 57 62 64 67 69 75 80 78 80 82 83 86 88 88 84 80 76 70 66 66 66 67 65 53 47 43 39 35 33 31 30 31
41 43 46 49 51 52 53 54 55 56 58 61 63 67 69 72 75 77 79 81 83 85 88 89 87 81 76 72 67 66 66 68 67 60 49 43 40 36 33 31 30 29 29
43 46 48 51 53 54 56 57 57 58 60 62 65 69 71 72 74 77 81 83 86 88 90 88 81 76 72 71 71 70 69 68 64 55 45 41 37 33 31 30 29 28 28
45 48 51 53 54 56 56 56 57 59 60 64 67 70 71 73 75 79 83 87 91 93 92 85 78 76 78 77 75 71 67 63 56 48 41 38 35 31 29 29 29 28 28
50 52 54 55 56 55 56 57 56 58 61 65 67 70 72 75 79 82 86 91 94 94 87 80 77 78 77 73 70 65 60 56 50 42 37 36 33 29 27 27 28 28 29
53 55 56 56 56 56 57 57 60 64 67 70 71 72 74 78 81 85 89 92 91 88 85 81 77 73 72 68 62 57 54 46 43 37 34 34 32 27 27 26 27 27 28
56 56 56 56 57 59 61 62 66 71 73 76 78 80 80 81 85 90 91 90 84 80 79 77 73 65 58 57 51 44 44 41 40 35 32 32 30 28 26 26 27 27 27
57 57 57 58 60 62 63 67 72 77 80 81 80 82 83 87 90 91 88 83 77 74 70 63 53 51 51 46 42 44 46 41 40 35 30 30 28 27 27 26 26 26 26
58 59 60 61 61 62 66 72 76 78 78 79 81 85 90 91 89 85 80 74 72 68 59 49 46 46 43 39 42 41 41 41 37 32 29 28 26 26 25 25 24 24 24
60 60 61 60 63 68 72 76 80 78 77 79 84 88 88 87 84 80 75 69 65 57 49 47 43 43 39 37 38 38 37 34 31 28 27 26 25 23 23 23 23 23 22
63 61 61 65 69 74 78 82 82 79 79 83 86 87 84 82 80 77 74 66 58 52 49 45 44 43 38 34 33 33 32 29 27 26 25 25 23 21 22 22 22 21 21
61 64 68 72 76 81 84 81 79 81 83 85 84 81 79 77 76 75 68 60 53 49 47 46 45 42 37 35 34 30 29 28 26 25 25 24 21 20 20 21 20 20 20
65 68 72 77 81 83 79 79 81 84 84 81 80 78 76 74 71 66 58 53 51 47 47 46 44 38 37 36 34 30 29 27 25 25 24 23 20 19 20 20 18 18 18
69 72 77 81 81 78 79 82 83 81 78 77 76 75 75 72 64 60 52 49 48 46 45 44 42 36 36 34 32 29 27 25 24 24 23 22 20 20 20 19 17 16 15
73 78 81 78 77 79 81 81 78 75 75 73 73 74 72 67 64 59 52 49 48 46 43 41 39 36 35 31 29 29 25 23 23 23 23 23 22 21 21 20 17 15 15
78 78 76 76 78 80 80 75 73 74 72 71 72 72 68 65 62 57 53 49 48 45 41 38 37 35 33 31 29 29 26 23 23 24 24 25 24 23 21 20 18 16 16
76 74 76 78 79 77 72 72 74 72 69 70 72 72 67 63 61 56 51 48 46 43 39 37 35 36 36 35 28 27 26 25 26 25 26 25 24 23 22 21 19 18 17
74 76 79 79 74 69 71 73 73 68 68 70 73 70 65 62 59 54 49 47 43 41 39 36 33 34 38 38 31 24 24 25 27 29 28 28 26 23 21 21 20 20 19
78 79 76 70 69 71 73 73 70 67 68 71 72 67 63 59 55 50 47 44 42 40 36 34 30 30 37 39 35 24 24 25 29 28 28 25 22 20 20 21 21 20 19

GFSGL_500_spd_060.txt.gz
Wind_Speed
28 28 30 33 38 39 38 40 39 35 38 40 39 39 52 51 46 57 66 72 74 70 64 70 80 76 75 81 85 84 84 86 88 88 90 87 84 73 69 70 68 60 53
30 32 35 37 40 40 42 42 40 39 43 40 40 48 43 49 66 70 67 73 68 63 78 78 77 77 78 88 84 85 86 88 90 90 85 80 74 69 67 68 64 57 51
35 38 40 40 41 43 44 43 40 39 37 40 52 46 57 66 67 70 69 70 71 71 72 77 80 80 87 89 86 85 88 90 90 88 81 74 68 66 66 66 60 53 48
40 40 40 41 43 44 43 43 43 41 44 48 53 54 61 63 60 67 69 67 69 71 74 79 81 86 90 87 87 88 90 89 86 82 76 69 65 64 65 65 55 50 46
38 40 40 40 41 41 42 43 44 45 47 48 51 54 57 59 61 65 66 69 72 75 77 80 85 85 85 86 88 89 91 88 82 76 70 65 63 64 65 63 52 47 42
35 36 36 38 39 40 41 43 45 47 50 52 54 57 58 58 58 62 71 69 78 77 79 81 82 83 85 87 89 90 89 82 77 71 67 65 64 65 64 58 49 44 39
35 35 36 37 39 40 42 45 47 51 53 55 58 59 60 60 61 62 64 70 73 76 79 81 83 85 88 89 91 91 86 78 71 70 70 68 66 65 61 54 46 41 37
34 35 37 38 40 43 45 47 50 54 56 57 57 58 59 61 62 64 67 69 73 76 79 82 84 86 90 93 92 91 82 76 73 72 70 66 63 59 55 48 42 38 34
34 36 38 40 43 45 48 51 55 57 58 59 59 60 61 61 63 68 72 75 77 78 81 83 85 88 92 93 89 84 79 76 76 72 67 61 56 52 48 43 38 35 32
36 38 40 43 46 50 53 56 58 59 59 59 60 62 63 64 68 73 77 81 82 82 81 84 89 92 91 87 85 82 78 71 71 68 61 52 50 46 42 38 36 33 31
38 41 43 47 50 53 57 58 58 58 58 59 61 63 64 67 71 77 81 83 82 82 86 89 92 92 88 81 79 76 71 65 64 60 51 45 43 41 37 33 32 30 29
41 45 48 51 54 57 59 59 59 59 60 61 62 63 66 70 76 81 81 81 84 88 90 91 90 85 79 74 73 68 60 55 52 47 40 34 37 35 33 31 30 28 27
46 49 52 55 58 60 60 60 60 61 62 63 62 65 70 76 82 85 83 83 86 90 91 89 84 77 72 70 65 55 47 49 45 39 43 42 41 35 32 30 28 28 27
50 53 56 59 60 60 59 60 62 64 63 62 66 71 77 83 86 86 87 88 90 90 89 84 77 71 67 62 51 47 46 45 43 39 39 40 38 36 31 30 27 28 27
55 57 60 61 61 60 62 64 64 62 64 68 72 77 82 86 88 88 90 92 92 89 85 78 72 67 58 51 48 43 43 44 39 36 37 38 37 32 28 28 27 28 26
59 61 61 61 61 63 64 63 63 66 69 73 78 82 87 86 87 88 90 89 87 83 78 73 68 59 52 48 44 42 41 41 37 35 36 34 30 28 26 26 27 27 25
61 62 61 63 64 64 63 64 67 69 73 78 83 85 84 85 86 88 87 86 82 77 73 67 62 52 48 46 44 42 39 38 36 35 31 27 25 24 24 24 25 25 23
61 62 64 65 64 64 65 67 70 74 79 83 84 83 83 85 86 87 84 80 75 73 69 63 56 49 46 44 43 41 37 36 35 34 28 24 23 23 23 23 23 22 21
64 66 66 64 64 66 69 72 75 79 83 84 83 83 84 83 83 81 77 74 72 70 63 59 53 48 45 43 42 40 38 36 33 31 25 23 22 22 22 22 21 20 20
68 66 65 66 67 70 73 76 80 83 82 82 83 83 81 80 78 74 70 70 70 67 61 57 50 46 43 42 39 38 39 36 32 29 24 23 23 23 22 21 20 19 19
66 67 68 69 72 75 78 81 82 81 81 82 82 80 79 78 74 70 67 69 70 66 60 56 49 43 40 39 38 36 36 34 31 27 25 23 23 22 22 21 20 19 19
68 69 71 73 76 79 82 82 80 80 81 81 77 76 77 75 72 68 67 70 69 65 58 52 45 41 37 35 35 35 34 31 29 25 24 24 24 23 23 22 21 20 19
71 73 75 77 81 82 80 80 80 81 78 74 75 76 75 73 69 67 69 71 67 61 55 48 44 39 36 34 32 33 31 29 27 25 24 23 25 24 24 23 22 21 19
75 77 79 82 81 80 81 81 80 75 73 75 76 76 74 71 67 68 70 69 62 56 50 45 41 38 35 32 32 33 32 32 26 25 26 24 26 26 25 24 23 22 20
79 82 83 82 82 82 81 77 73 73 75 76 76 75 73 68 67 69 68 62 56 50 46 42 38 33 30 30 30 35 34 34 26 25 29 31 28 25 26 25 24 23 21
83 83 83 83 82 80 74 72 74 75 76 76 75 72 68 67 68 67 62 55 50 46 42 37 31 28 29 29 26 37 35 34 26 24 28 30 28 28 26 24 24 23 22

GFSGL_500_spd_063.txt.gz
Wind_Speed
25 26 27 31 31 34 38 40 40 41 43 44 44 40 35 39 39 41 51 59 58 61 68 79 81 77 75 73 76 80 84 86 91 89 90 90 91 93 93 92 83 72 65
29 31 30 32 35 38 42 46 45 44 45 46 43 38 47 44 54 55 52 61 66 73 77 80 75 72 76 76 82 83 88 88 88 89 88 90 93 91 89 84 72 64 60
32 33 35 38 41 43 46 46 46 47 48 46 47 44 45 55 55 58 57 61 67 68 70 71 72 76 79 82 85 84 86 87 89 90 90 92 93 89 83 74 67 64 61
40 41 43 45 45 46 45 46 47 48 48 48 48 48 50 52 54 57 59 61 63 65 65 63 70 73 78 80 84 85 86 87 89 91 93 94 91 82 74 72 69 66 63
40 39 39 41 43 45 46 44 45 46 47 47 48 49 51 54 56 59 61 63 63 64 65 66 68 70 74 79 82 83 86 88 90 94 94 89 81 75 72 70 70 65 58
33 34 35 39 38 40 41 42 43 44 45 47 49 52 56 58 60 62 63 63 64 65 64 65 70 74 79 82 82 81 84 89 92 92 88 82 78 73 70 68 65 59 53
38 38 36 37 38 39 39 40 43 45 47 50 53 56 59 61 62 62 63 63 65 65 66 69 73 79 82 83 84 87 88 90 92 88 83 76 75 70 67 63 59 53 47
37 38 39 39 39 40 41 43 45 48 51 54 57 60 62 62 62 63 63 65 65 65 67 72 78 82 83 84 87 89 92 93 88 82 78 72 69 65 61 58 53 46 41
36 38 38 39 40 41 43 46 48 51 53 57 60 62 62 63 62 63 65 66 66 67 72 77 83 85 85 85 89 90 89 85 76 76 75 71 65 59 53 48 44 42 36
36 36 37 39 41 43 45 48 51 53 57 61 63 62 63 63 64 66 68 67 69 72 76 82 85 87 87 89 90 90 88 80 72 69 70 65 55 50 43 40 40 38 35
35 37 39 41 43 45 48 51 53 57 61 63 63 63 64 66 69 68 66 70 73 77 81 85 87 87 88 90 89 87 81 74 67 62 58 51 48 46 35 29 33 37 34
38 40 42 44 46 49 52 55 58 61 64 64 63 65 67 67 65 66 69 73 78 82 86 88 88 89 90 89 86 81 74 69 59 52 47 46 44 40 39 40 34 32 30
42 44 45 47 50 54 57 60 63 65 64 63 65 66 65 64 67 70 73 77 82 85 88 88 89 90 89 85 79 72 67 59 50 47 44 42 35 44 44 36 37 35 30
45 46 49 52 55 58 61 64 65 63 64 65 66 65 66 68 72 74 77 81 85 88 89 88 90 89 86 80 72 66 61 51 45 43 41 39 36 36 34 33 35 33 28
48 51 54 57 59 62 63 64 63 64 67 68 67 68 70 72 75 79 83 86 89 91 89 90 90 87 81 72 67 61 55 47 43 40 40 36 35 35 36 36 33 29 27
53 56 58 61 61 63 64 63 65 68 69 69 70 72 74 76 80 84 87 89 90 89 89 87 84 78 72 68 65 58 51 45 40 39 37 35 33 33 36 32 29 26 25
57 60 61 61 64 64 64 67 69 68 69 71 72 74 77 81 85 88 88 89 88 86 86 84 78 72 67 67 63 55 49 46 40 36 35 35 34 33 34 30 26 24 24
63 59 61 63 63 63 67 70 70 70 71 72 74 77 81 86 87 87 87 87 83 83 82 78 72 67 66 67 62 53 45 42 40 36 31 35 34 33 30 28 25 24 23
60 63 65 63 63 67 70 70 71 72 74 76 79 82 85 86 87 86 85 82 81 81 79 73 68 65 67 67 58 49 43 40 37 34 33 33 32 29 28 26 24 22 22
62 65 64 65 68 69 71 72 73 74 76 79 83 85 86 86 85 83 80 79 80 78 75 71 66 67 69 62 52 43 39 37 34 36 39 35 30 26 25 23 23 22 21
62 65 67 68 68 70 73 74 75 77 80 83 85 86 85 84 81 78 78 79 78 75 71 66 66 69 66 55 46 40 36 34 35 38 39 32 27 25 23 23 23 22 21
66 67 68 70 71 72 74 77 79 82 84 85 85 85 83 78 76 78 79 79 76 72 68 66 66 66 58 48 42 36 33 33 35 35 34 29 25 24 23 23 23 22 21
69 70 73 73 73 76 79 82 84 85 86 86 84 81 77 76 78 80 79 76 73 68 67 67 65 58 49 43 39 35 32 31 34 37 33 27 24 23 25 24 23 22 21
73 74 74 76 78 81 84 86 87 87 86 83 80 77 78 79 80 79 76 73 69 67 66 64 58 49 42 39 35 30 27 27 31 33 30 27 25 22 22 23 24 22 22
74 76 78 81 84 87 88 89 88 86 83 80 79 80 80 80 78 75 72 69 67 65 62 57 49 42 37 33 29 27 27 28 29 33 33 30 25 27 22 25 24 24 23
79 83 85 88 89 90 89 88 86 84 83 82 82 82 80 77 74 71 69 67 63 59 55 48 42 37 34 30 29 29 28 26 30 33 34 29 25 29 23 24 25 25 24

GFSGL_500_spd_066.txt.gz
Wind_Speed
24 24 23 26 31 34 28 32 35 37 39 41 43 43 43 44 42 41 45 47 44 57 57 61 61 65 70 76 74 73 70 74 75 72 78 83 85 86 87 89 92 92 90
29 33 29 26 31 32 36 39 40 43 44 44 44 45 46 46 45 46 47 48 53 56 58 60 62 64 66 68 70 70 70 72 76 78 80 83 84 86 88 90 92 89 85
32 31 31 35 36 37 39 42 46 48 47 47 48 48 48 47 48 48 48 50 54 58 60 61 63 64 65 67 68 68 70 75 79 83 83 85 86 88 91 92 90 85 81
33 35 39 41 42 45 44 44 44 46 46 49 46 47 48 48 49 50 52 55 58 61 62 63 65 66 66 67 69 71 73 78 83 86 88 88 88 89 90 89 84 77 72
35 36 40 41 40 39 39 39 43 44 45 45 46 47 47 48 49 52 56 59 62 63 64 65 65 66 69 69 70 72 76 81 84 86 87 89 89 87 85 81 75 72 67
36 37 38 37 35 38 41 42 41 42 43 44 45 46 47 49 53 56 60 63 65 65 65 66 67 69 70 70 72 77 81 84 88 90 89 89 87 86 81 77 72 67 66
37 37 37 38 40 41 40 40 42 43 43 44 45 47 50 53 56 60 63 65 65 64 65 67 69 70 70 72 76 79 83 87 89 88 90 89 87 81 76 72 68 63 57
38 39 40 41 40 40 41 43 43 43 43 46 47 50 53 56 60 63 65 65 65 66 67 68 69 68 72 76 79 82 86 90 88 91 90 87 81 76 70 65 61 55 50
38 38 39 40 41 43 43 43 43 44 46 48 50 53 56 59 63 65 65 64 66 67 66 66 69 71 75 79 83 87 90 89 88 88 85 81 75 68 62 56 52 50 46
36 37 39 40 41 41 42 43 45 47 48 50 54 57 61 64 64 63 65 66 67 66 65 68 71 75 78 83 88 91 92 89 89 85 79 73 68 61 53 46 45 46 41
37 38 38 39 40 41 43 45 47 49 51 55 59 62 64 64 63 64 65 66 65 66 69 71 74 79 83 87 90 91 91 90 87 83 73 65 60 52 45 43 42 42 37
39 39 41 42 43 44 46 48 49 52 56 59 63 63 64 65 64 65 66 67 68 70 72 75 79 82 86 88 91 91 90 89 84 75 65 58 53 46 42 40 38 36 39
41 42 43 44 46 48 50 52 54 56 60 63 63 65 65 64 67 68 69 70 71 73 76 79 83 86 88 89 89 87 87 83 76 66 62 55 48 42 39 38 32 40 40
42 44 46 48 50 52 53 55 58 62 64 64 66 65 66 68 69 71 72 74 75 77 79 83 86 88 89 89 87 86 83 77 68 61 60 52 45 39 37 33 33 34 32
45 48 50 52 54 56 58 60 64 63 64 66 67 67 68 70 70 73 75 77 78 80 83 87 89 90 89 87 85 82 76 70 63 60 59 49 41 37 34 26 36 34 31
49 52 54 56 59 62 63 64 65 65 67 68 69 70 71 73 74 76 77 80 82 85 88 90 91 89 87 85 82 76 69 63 61 62 56 43 35 31 29 33 34 31 31
53 55 57 60 62 64 67 68 63 64 66 68 71 73 75 77 79 80 80 84 86 89 91 90 87 85 83 81 77 70 62 59 62 58 49 37 28 30 31 31 32 31 29
60 60 61 63 65 69 70 67 67 71 71 73 75 76 77 79 82 82 84 87 89 90 89 85 83 82 81 77 71 65 59 59 56 47 41 38 35 31 34 36 35 31 26
63 65 66 67 71 72 71 65 71 74 76 78 79 80 80 81 83 86 88 89 90 88 84 81 81 81 78 72 66 62 60 58 52 41 37 37 35 28 29 30 31 29 24
66 67 69 73 72 71 66 74 75 78 80 81 82 81 83 85 87 89 90 90 86 82 81 81 80 78 73 68 64 61 59 54 43 36 33 32 30 31 34 32 28 25 23
72 73 66 61 64 68 74 76 79 81 81 81 82 84 86 89 90 90 89 84 82 81 81 80 76 72 69 65 62 60 55 45 37 32 30 33 33 32 35 31 24 22 20
64 62 64 67 70 73 75 78 81 82 82 84 86 89 91 92 91 88 84 83 82 81 79 77 73 69 66 62 59 53 45 38 34 30 29 31 33 33 32 25 23 21 21
62 65 68 70 72 75 78 80 82 84 86 88 91 92 92 91 88 86 84 83 81 79 76 73 70 66 61 56 52 45 38 34 30 27 27 31 31 31 27 21 21 21 19
66 68 70 73 75 79 82 83 86 88 90 92 93 92 91 89 87 86 84 82 79 76 73 69 64 59 53 49 44 39 33 29 24 21 22 26 30 28 26 20 24 21 19
70 72 75 79 82 84 87 89 91 94 94 94 93 92 91 89 86 84 82 79 76 72 67 62 56 51 46 41 38 34 30 26 24 26 25 25 34 32 25 23 24 21 22
74 79 82 84 87 90 93 95 96 96 96 95 93 90 88 87 85 83 79 74 70 64 58 53 49 44 39 36 34 31 27 25 25 25 24 25 30 29 29 25 26 21 22

GFSGL_500_spd_069.txt.gz
Wind_Speed
24 21 23 26 27 31 33 36 38 28 30 32 34 35 40 40 40 42 40 40 42 44 43 44 47 51 56 60 62 63 63 64 66 66 68 70 71 74 80 83 86 88 90
27 26 29 31 30 37 40 44 31 32 37 38 38 39 38 40 41 40 42 43 44 45 46 49 52 56 60 62 63 63 64 66 68 68 68 69 74 78 80 84 88 90 93
33 26 29 29 34 29 29 34 36 38 39 39 39 40 41 42 42 43 44 44 45 47 50 53 57 60 63 64 64 64 66 69 70 69 70 73 77 81 86 90 91 92 92
24 23 29 29 35 35 36 38 39 39 37 37 39 42 41 42 43 43 44 44 47 50 53 57 61 64 64 64 65 68 69 68 70 72 74 76 80 84 90 92 93 92 89
28 28 29 32 35 37 39 39 39 38 39 42 41 41 42 43 43 43 45 47 50 54 57 61 64 64 64 64 65 65 66 68 71 74 78 82 84 87 92 92 94 89 84
32 33 34 37 39 39 39 38 39 41 44 42 42 43 43 44 45 45 48 51 54 58 62 64 64 65 64 65 65 66 69 71 74 78 82 86 87 90 89 90 88 83 77
34 36 38 40 40 41 41 41 44 46 43 42 42 43 44 45 46 49 52 56 59 62 63 63 64 65 66 66 66 67 70 74 78 83 86 88 91 90 89 86 81 75 70
34 36 38 39 40 41 42 43 42 42 42 43 43 44 45 47 50 52 56 59 62 64 64 64 64 65 66 67 68 69 72 75 80 85 90 92 91 89 86 82 76 68 64
36 38 38 38 39 41 41 41 42 43 43 44 45 46 48 51 53 57 60 63 64 65 64 66 66 67 69 71 72 74 76 79 84 87 91 92 90 88 82 76 67 63 58
39 40 39 38 40 41 41 42 43 44 45 46 48 50 52 54 57 60 63 63 65 65 66 67 69 70 71 73 77 79 81 83 86 90 91 89 87 85 77 68 62 57 50
39 39 39 40 42 43 42 43 44 46 47 49 51 54 55 57 60 63 64 65 66 68 69 70 70 72 74 76 79 83 86 88 92 95 93 89 85 79 69 60 58 52 46
39 40 41 43 44 44 44 45 47 48 51 53 55 56 58 61 64 66 66 67 68 69 71 72 73 75 77 79 82 87 91 94 96 94 90 86 81 70 60 54 52 46 42
39 40 41 43 44 45 46 48 50 52 54 56 58 60 64 67 67 68 68 69 69 71 73 75 76 78 81 84 87 91 94 96 94 90 86 81 72 63 56 53 47 40 38
40 40 41 43 45 47 50 53 54 55 55 59 62 64 67 68 70 67 68 69 71 75 78 80 81 84 86 88 91 95 96 94 90 86 81 72 64 59 54 51 42 36 35
40 42 44 47 48 50 52 55 57 58 62 61 63 67 68 70 68 70 73 74 78 81 83 85 87 88 89 91 94 95 91 87 84 82 75 65 58 55 52 44 34 30 26
44 46 49 51 51 52 55 57 60 63 64 64 66 70 73 74 71 73 75 78 82 85 87 87 89 91 92 94 94 91 86 83 80 75 68 61 56 52 45 33 20 21 31
48 51 53 53 54 58 60 62 65 67 67 69 74 77 75 74 75 76 77 82 86 87 87 90 92 94 95 95 91 87 82 78 74 67 62 58 55 46 26 27 27 31 36
53 55 57 58 60 62 62 63 65 69 73 77 77 75 75 77 81 82 83 85 86 89 91 93 95 95 93 90 86 82 77 73 68 63 56 53 48 41 32 33 35 32 35
55 59 63 65 65 66 68 72 74 76 76 74 74 74 75 79 81 84 87 88 90 91 94 95 95 92 89 86 82 78 73 70 65 59 53 46 41 38 37 38 36 34 27
64 68 69 72 73 74 76 77 76 74 74 74 76 77 79 80 83 87 90 92 94 95 95 94 92 88 85 82 78 75 71 66 61 54 48 41 34 33 35 37 32 25 28
69 72 72 71 72 74 75 74 73 73 74 77 78 78 81 84 87 91 93 94 94 93 92 90 87 84 81 78 75 72 67 61 55 47 41 34 31 30 29 31 28 28 29
71 69 69 69 70 70 71 71 72 76 78 78 80 84 87 90 91 93 94 94 94 91 89 86 83 80 78 76 72 66 59 53 47 41 34 30 29 28 31 31 27 26 27
64 63 63 64 65 68 71 75 76 77 79 83 87 90 92 94 95 95 94 92 89 86 83 82 80 78 76 72 65 58 51 44 39 34 29 27 26 28 31 32 27 27 23
58 60 62 66 70 74 75 77 79 83 87 91 93 95 96 96 94 92 89 86 84 82 82 81 79 75 69 62 55 49 43 37 32 29 25 22 21 21 26 30 27 27 21
61 64 67 69 73 76 80 84 88 91 93 96 98 98 95 93 91 88 86 85 83 83 80 76 71 65 58 51 46 41 36 32 28 25 23 22 23 21 23 29 26 23 24
68 71 74 78 81 84 87 90 92 96 98 99 98 94 91 89 88 87 85 84 82 77 71 65 59 53 47 42 38 34 31 29 26 23 22 22 23 23 26 31 27 22 24

GFSGL_500_spd_072.txt.gz
Wind_Speed
20 22 25 26 28 29 30 29 33 33 41 32 29 27 27 26 30 32 33 35 35 36 37 37 38 40 43 45 49 53 58 58 57 58 60 61 63 63 65 68 71 74 78
25 28 32 33 34 35 35 32 33 28 35 41 29 29 28 28 30 34 36 36 37 38 39 41 41 43 46 49 53 57 56 58 60 61 61 62 64 67 68 72 75 80 83
30 24 21 26 32 26 33 27 25 34 34 35 32 28 30 32 36 36 38 38 40 39 41 42 44 47 51 55 58 57 60 63 63 62 63 65 67 69 72 74 78 83 87
23 22 22 27 29 29 29 28 30 34 35 34 32 33 36 38 39 40 42 41 41 42 43 45 48 52 56 60 61 61 61 64 65 66 68 68 70 71 76 80 83 87 92
25 25 23 28 31 31 34 33 35 36 37 40 40 40 40 41 41 43 44 42 43 44 46 50 53 58 60 63 63 64 65 67 68 69 70 71 72 75 79 83 87 93 96
26 26 27 28 30 32 35 36 39 39 39 41 43 43 44 42 43 43 42 43 45 48 51 54 58 61 63 65 64 66 68 70 70 71 72 75 77 80 82 86 92 97 99
28 27 29 31 33 35 36 38 39 40 41 42 43 43 43 43 43 44 45 47 51 54 56 59 61 65 67 66 67 70 71 72 74 74 75 79 80 83 87 90 95 98 94
29 31 33 36 38 39 40 42 42 42 42 42 43 43 43 44 45 47 49 52 55 57 59 61 65 68 68 67 69 71 73 74 76 76 79 81 84 87 92 96 98 96 91
30 32 33 34 36 39 41 42 42 43 44 46 45 45 46 47 49 51 53 56 58 60 63 66 70 69 70 71 70 71 73 74 77 79 82 85 88 92 96 99 96 94 88
33 34 35 36 37 39 40 41 43 45 47 48 47 47 49 51 52 54 56 58 61 65 68 71 71 72 74 73 72 73 74 76 80 83 84 88 92 95 98 99 94 91 84
36 37 39 40 41 40 40 42 45 47 48 48 49 50 52 54 55 57 58 61 65 67 70 72 72 71 71 72 74 77 80 82 84 86 89 92 96 99 99 95 91 85 72
38 40 40 40 39 39 41 43 44 46 47 47 48 50 53 55 57 58 62 64 65 68 71 72 74 75 75 76 78 80 83 86 88 90 93 95 97 98 94 89 83 72 63
40 42 42 41 41 42 44 45 47 48 49 50 52 53 55 56 59 63 66 67 69 71 73 74 77 78 78 78 81 83 86 88 91 95 97 99 98 94 89 82 73 63 56
42 41 40 41 43 45 47 48 52 52 52 55 57 58 59 61 64 66 68 69 72 76 78 79 79 80 80 84 85 85 88 92 96 99 100 98 93 88 80 73 65 57 51
42 43 44 46 47 49 51 54 55 55 57 59 61 64 65 64 64 67 70 74 78 80 82 81 81 82 84 85 85 89 93 96 99 99 96 92 87 80 72 65 58 52 46
47 47 47 48 49 51 54 56 57 59 61 63 61 60 64 69 74 76 78 81 83 84 82 81 81 83 84 86 90 94 97 98 97 94 90 85 79 72 66 59 51 45 31
51 50 50 52 55 58 59 61 60 61 70 70 70 72 76 79 81 84 85 85 83 81 80 82 83 84 87 91 95 97 97 96 93 88 83 77 71 68 62 53 44 34 25
55 50 55 56 54 58 62 64 65 76 75 77 79 79 80 82 83 84 83 82 81 81 82 83 85 89 93 96 96 96 94 91 86 80 76 73 69 62 55 47 38 35 34
59 58 61 61 61 63 66 69 72 79 77 78 79 79 81 82 82 81 80 80 80 81 83 87 92 95 97 97 96 93 89 84 80 77 74 71 65 56 47 42 38 33 36
58 58 59 60 63 67 70 71 75 81 78 75 76 77 79 79 79 80 81 82 84 87 92 98 98 97 97 95 91 86 82 80 77 75 71 65 56 48 41 37 35 34 37
58 60 63 66 69 72 75 78 78 73 71 71 73 75 77 79 81 83 85 89 94 98 98 97 97 96 93 89 85 82 80 78 75 71 64 54 46 40 37 33 31 33 37
62 64 67 69 70 69 67 65 66 68 70 72 75 78 81 83 87 91 93 95 96 97 98 96 94 90 87 85 83 81 77 74 69 62 52 44 39 35 32 29 27 30 31
62 61 60 60 62 64 66 68 70 72 75 78 80 84 88 91 92 94 97 98 98 96 93 91 89 86 85 84 81 77 71 65 57 48 41 37 33 30 28 26 26 24 25
62 62 62 63 64 66 68 71 74 77 81 84 87 88 91 95 97 98 98 96 93 91 90 89 87 86 83 80 74 67 60 52 44 39 34 30 28 26 24 24 26 31 34
61 62 64 67 69 72 75 78 81 83 86 89 93 96 98 98 97 96 93 91 90 90 90 89 87 82 75 67 59 53 46 41 36 31 27 26 25 23 21 21 23 31 30
65 67 69 72 75 78 80 83 86 89 93 96 97 96 95 93 92 91 91 91 90 89 86 83 77 69 59 51 45 41 37 33 29 27 24 23 23 23 22 23 21 28 30

GFSGL_500_spd_075.txt.gz
Wind_Speed
19 21 23 24 26 28 29 30 31 32 35 37 42 48 36 44 35 29 31 35 31 34 36 38 39 40 40 39 40 41 44 48 51 53 55 57 57 58 61 63 63 65 67
25 28 27 28 25 32 16 29 36 42 48 42 26 23 25 25 26 29 31 31 34 36 39 41 41 42 43 43 43 44 48 52 54 56 58 57 58 61 62 63 65 67 70
24 25 21 17 17 20 23 23 21 28 30 23 26 24 24 27 29 32 34 35 38 40 42 43 44 43 44 45 46 50 52 55 58 60 61 60 61 62 64 65 67 69 73
21 21 21 22 21 24 22 23 24 27 28 28 29 29 31 34 35 38 39 42 43 44 44 44 45 46 46 48 50 53 56 58 62 63 63 64 65 66 68 69 70 73 76
24 25 24 23 24 25 22 24 27 29 29 29 31 34 35 36 40 42 42 43 44 45 46 46 46 47 49 51 54 57 59 61 64 64 65 67 67 67 69 72 75 75 77
27 25 25 24 25 25 26 27 29 32 32 34 34 33 36 39 41 43 42 43 45 45 46 47 50 51 52 54 57 60 63 65 65 68 70 69 69 70 72 75 79 81 82
23 23 23 24 26 27 29 32 33 34 36 37 35 36 37 39 41 43 44 45 45 47 49 50 52 53 55 57 60 64 65 67 70 70 70 71 73 75 79 81 82 83 87
27 27 27 27 29 31 32 34 37 39 39 38 37 39 41 43 44 46 46 47 49 51 52 53 54 55 58 61 64 65 67 70 71 73 74 75 77 80 83 85 85 88 90
30 31 32 34 35 36 36 38 40 41 41 41 41 42 44 46 48 49 50 51 53 54 54 55 57 60 62 64 65 68 70 72 74 76 79 79 81 84 86 87 89 93 94
33 34 35 37 38 39 41 42 43 44 45 45 45 46 48 50 51 52 53 55 57 56 57 59 61 63 67 69 70 71 74 76 77 78 80 82 83 85 86 88 92 97 101
36 38 40 40 40 42 44 44 44 45 46 47 48 49 52 54 54 55 57 58 60 61 63 63 65 68 70 71 73 76 80 82 81 80 83 85 86 86 88 91 96 100 101
37 40 42 42 43 44 45 47 48 48 48 49 51 52 55 57 58 59 61 63 64 65 67 68 68 69 73 76 80 82 85 85 84 84 85 86 87 89 91 94 98 99 97
40 42 43 44 45 46 48 50 50 50 52 55 55 55 57 58 60 63 66 69 71 68 64 67 71 77 81 83 86 87 87 87 86 85 85 87 89 92 95 98 97 94 89
42 44 46 46 48 49 50 50 51 51 52 53 55 56 58 58 60 63 68 71 68 71 76 79 81 83 86 89 89 89 87 86 85 86 87 90 93 96 98 95 92 85 79
47 49 47 47 48 51 54 55 55 56 58 58 59 61 62 64 65 68 72 75 79 81 83 85 87 88 89 89 88 87 86 86 87 89 92 94 97 98 93 90 84 78 74
53 54 56 55 54 52 54 57 57 59 59 61 62 64 68 70 73 75 76 81 83 85 87 87 88 89 89 89 87 86 87 89 91 94 96 98 97 93 88 81 77 74 70
54 47 50 51 55 52 59 59 60 63 66 69 71 75 77 77 77 78 82 86 87 86 86 87 88 89 88 88 89 90 91 94 96 98 99 96 93 87 81 77 74 69 61
53 54 55 56 58 59 61 64 67 70 70 69 70 72 74 76 79 83 85 86 84 83 84 85 86 87 89 90 91 94 96 98 100 98 95 91 86 81 78 75 70 63 48
54 57 58 59 59 59 60 61 63 64 66 68 71 74 77 80 80 78 75 76 79 81 83 85 88 90 92 94 96 98 100 99 98 94 89 85 83 79 75 71 64 52 39
55 58 59 58 58 58 59 61 64 67 70 71 71 71 71 71 73 74 76 79 82 85 87 90 93 95 97 100 101 101 99 95 90 87 85 83 80 77 72 64 52 40 34
54 53 53 55 58 61 63 65 66 67 68 70 71 72 74 76 77 79 83 86 88 91 94 96 98 100 102 102 100 95 91 88 88 86 83 80 75 69 62 49 39 33 30
52 56 58 60 61 63 64 67 68 69 70 72 73 76 78 81 84 86 89 91 94 96 98 99 100 100 98 94 91 90 88 87 85 82 78 71 64 55 45 37 31 29 27
57 58 59 62 64 65 67 68 70 71 72 75 78 81 84 86 89 92 94 97 99 100 100 100 97 94 93 92 91 89 87 84 79 73 65 56 47 40 34 29 27 25 25
59 61 62 63 67 69 70 71 73 75 77 80 83 86 88 92 95 98 99 99 98 97 95 94 94 93 91 89 87 85 80 73 64 56 46 38 34 31 28 25 24 22 22
61 63 65 67 69 71 73 75 77 80 82 85 89 93 96 96 96 96 95 94 93 93 93 92 90 88 86 83 78 71 61 53 44 37 32 28 27 26 24 22 22 21 23
64 66 68 70 73 75 77 78 81 85 88 91 92 92 92 93 92 92 92 92 91 89 88 86 83 78 72 64 55 46 38 33 30 26 23 23 23 23 21 20 20 20 22

GFSGL_500_spd_078.txt.gz
Wind_Speed
16 19 20 21 24 25 22 22 19 25 26 28 30 34 36 43 44 42 45 49 49 40 40 40 36 40 43 44 46 45 44 44 45 47 48 51 53 55 57 59 59 60 63
20 23 24 26 28 20 22 21 27 18 19 34 30 41 41 44 29 26 25 28 33 33 36 42 42 44 46 49 47 47 48 49 49 49 51 53 55 57 60 60 61 63 64
22 23 26 21 17 20 10 13 15 18 18 17 14 20 17 28 22 29 31 29 31 34 37 39 42 46 47 48 50 50 49 51 52 53 53 55 58 61 60 61 64 64 65
24 23 22 22 23 18 16 19 18 22 21 20 23 22 23 25 28 32 31 34 36 37 39 43 46 48 48 50 49 50 52 53 54 55 56 60 63 62 63 64 65 65 66
27 24 23 26 26 24 23 22 24 25 25 25 28 25 27 31 33 34 34 34 39 40 43 46 48 49 49 51 52 52 54 55 56 58 62 65 64 65 66 66 67 70 72
30 29 27 26 26 28 28 28 26 26 27 28 28 30 31 34 35 37 37 38 41 43 46 47 49 50 51 52 53 55 56 58 61 63 65 66 66 67 69 70 73 74 76
25 24 22 22 24 25 27 27 27 29 30 31 32 34 37 39 39 40 41 41 43 45 47 49 50 51 53 55 56 58 60 62 64 65 69 69 69 72 74 77 79 79 79
23 23 23 24 25 27 29 30 32 34 35 36 37 38 40 42 41 41 42 45 46 47 49 51 52 53 55 58 60 63 64 65 67 69 71 72 75 79 82 84 83 81 80
27 28 28 29 31 32 33 35 36 36 38 39 41 43 44 44 44 44 46 48 49 51 52 53 54 57 59 62 64 67 69 71 70 72 74 79 82 83 85 85 84 84 83
29 30 32 33 33 35 36 38 40 41 42 42 43 44 45 46 47 48 50 53 54 55 56 57 59 61 64 67 69 68 68 68 72 77 81 83 84 86 86 86 85 85 86
29 32 33 33 35 37 40 42 44 45 46 47 47 48 49 49 50 52 54 56 58 59 60 60 61 63 65 64 65 67 71 76 80 82 83 85 85 85 85 84 85 86 88
33 34 35 36 37 40 43 44 46 47 48 49 50 51 51 52 54 56 57 58 61 63 64 64 64 67 69 70 73 75 78 81 84 84 86 86 86 85 84 84 86 87 90
37 39 41 41 42 43 46 48 49 50 51 51 53 53 53 55 57 60 62 62 65 67 68 72 74 76 79 82 82 81 82 84 86 87 86 86 85 85 85 86 88 90 91
44 46 47 47 46 49 51 51 51 53 55 55 57 58 59 61 63 65 65 67 71 74 76 78 81 83 82 81 82 85 87 86 85 85 85 85 86 87 89 90 92 93 94
49 47 46 52 54 55 57 57 59 60 60 61 58 63 64 63 65 68 69 74 78 81 82 81 79 81 83 86 86 85 83 83 84 85 86 88 90 91 92 94 95 96 95
50 55 56 57 57 59 57 52 54 58 61 58 57 60 61 64 68 72 78 81 79 77 78 81 84 86 86 84 81 82 83 85 87 89 91 92 93 95 96 96 97 92 86
54 55 58 61 60 61 48 55 58 61 65 67 65 67 70 75 77 76 75 76 78 80 82 83 83 80 81 83 84 86 87 90 92 94 96 97 98 99 99 94 89 85 79
60 63 64 64 65 63 63 61 60 64 64 65 66 68 69 70 72 74 76 77 79 81 82 81 82 82 84 86 89 91 94 95 97 99 100 101 100 97 93 89 85 80 77
60 60 58 51 50 55 58 60 63 65 64 63 63 65 68 70 71 74 77 79 81 81 82 83 85 87 89 92 94 96 98 100 102 102 101 99 95 91 87 85 82 78 73
46 48 53 57 60 60 61 59 59 61 63 65 67 68 70 72 75 77 79 82 83 84 86 88 91 93 95 97 100 102 104 104 102 99 95 92 91 90 86 82 77 70 63
53 56 58 59 59 58 58 61 63 64 66 68 70 71 74 77 79 81 84 86 88 90 92 95 98 100 102 104 105 105 102 99 97 96 94 92 88 84 80 74 67 58 48
54 54 56 57 58 60 63 62 64 68 70 72 74 77 79 82 84 86 88 91 93 96 99 101 103 105 105 104 102 99 98 97 95 92 88 84 80 75 68 59 50 39 32
56 57 57 60 61 59 62 66 69 71 74 76 79 82 85 86 88 90 93 96 100 102 103 103 102 101 99 98 97 95 92 89 87 84 79 72 64 56 48 38 31 26 23
57 59 60 58 59 64 68 71 73 75 79 81 83 86 88 90 94 97 99 101 101 100 99 98 97 96 94 92 90 88 84 79 72 65 57 47 40 35 30 25 21 19 19
58 55 58 63 66 70 73 75 77 80 82 84 87 91 94 96 97 97 96 95 95 94 94 93 91 89 86 82 75 68 62 55 47 39 32 27 25 23 21 18 16 16 17
57 62 66 69 72 74 76 78 81 84 87 91 93 93 92 90 90 89 89 90 89 87 85 83 79 72 64 57 50 44 37 31 25 20 17 17 18 17 15 14 14 15 16

GFSGL_500_spd_081.txt.gz
Wind_Speed
14 14 14 15 17 18 17 20 20 22 20 22 26 28 28 30 34 32 34 36 50 33 38 50 48 46 50 48 46 41 43 50 49 53 53 53 52 53 54 56 57 59 61
20 19 20 22 22 22 24 25 26 27 24 18 12 16 31 36 28 32 45 53 29 29 27 35 40 47 44 39 45 46 50 57 57 55 55 54 54 56 56 57 60 61 65
23 23 26 25 24 21 20 22 14 13 14 16 20 22 19 23 27 27 31 45 34 32 32 31 35 40 42 43 48 50 54 58 57 57 56 56 57 59 60 61 64 65 69
23 24 25 25 24 21 19 16 15 17 18 18 21 24 25 29 29 26 27 28 33 32 35 35 37 41 41 44 47 52 56 58 58 57 57 58 59 61 62 65 65 68 71
27 28 28 26 24 25 25 25 22 21 23 19 22 24 26 28 29 30 31 32 33 36 38 38 41 42 44 48 52 56 58 58 58 59 59 60 62 65 66 67 70 72 72
23 25 29 28 27 26 24 25 24 27 24 22 23 25 28 30 31 31 32 35 37 40 41 44 46 46 50 51 52 54 55 56 58 59 60 62 65 66 68 70 73 72 73
24 23 24 25 24 23 21 20 21 24 26 27 28 31 32 32 34 35 37 39 41 42 44 46 48 51 51 52 52 53 54 56 58 61 63 65 67 68 70 71 71 74 78
27 25 26 27 24 24 24 24 26 27 29 32 33 35 36 37 36 36 37 39 42 45 47 49 51 51 52 53 53 54 55 57 61 64 64 63 65 68 70 72 78 81 81
25 26 24 27 28 28 27 27 28 30 32 34 36 38 39 39 39 39 41 43 45 47 49 50 52 53 54 55 56 58 58 59 61 64 68 71 73 76 77 79 81 82 83
26 26 25 25 27 28 30 31 32 34 36 37 38 41 42 42 42 43 45 46 48 50 51 53 55 56 57 59 60 62 65 70 74 77 77 77 79 81 82 83 84 84 84
27 27 27 28 29 30 32 32 32 33 35 37 39 42 44 46 47 48 50 51 53 54 56 58 60 61 62 64 66 70 74 77 80 82 85 84 84 85 86 86 86 85 84
28 28 30 33 33 33 35 36 38 40 42 43 45 47 47 49 50 52 54 56 58 60 62 63 65 68 70 72 73 77 82 84 84 84 84 86 89 91 89 87 85 85 85
30 32 34 36 37 38 38 42 45 43 45 47 48 51 54 55 57 58 61 63 63 65 68 67 69 71 74 73 75 84 84 83 84 86 88 90 91 89 87 86 86 86 86
37 41 42 43 42 43 45 46 43 49 49 49 52 52 52 53 51 55 59 61 65 65 68 71 75 76 79 84 86 83 85 87 88 88 89 89 88 89 90 89 89 89 89
45 41 44 42 42 46 50 50 54 52 52 53 52 52 55 55 55 62 64 68 70 72 75 78 80 81 82 83 84 85 86 88 90 90 91 92 92 93 93 94 95 94 94
43 45 43 44 48 52 55 55 56 57 59 56 62 62 69 70 65 68 70 71 73 75 76 77 77 79 82 84 86 88 90 92 93 93 95 96 97 98 98 99 99 99 96
51 41 50 54 52 61 59 59 60 63 65 64 60 62 64 66 68 70 74 75 74 74 76 78 79 81 84 87 89 91 92 94 96 98 99 100 100 101 102 102 100 96 91
47 57 52 49 57 63 63 62 60 56 54 56 59 62 66 70 72 71 70 72 74 76 78 80 82 85 87 90 93 95 97 99 100 101 103 104 105 105 102 98 94 90 86
60 60 51 59 63 64 58 52 51 54 57 61 64 66 68 69 70 71 72 74 77 79 81 84 87 91 93 95 98 100 102 103 105 107 107 106 104 100 96 94 90 87 82
52 55 58 53 50 49 51 53 57 60 63 65 66 67 69 71 70 72 76 79 81 84 88 90 93 95 98 101 104 106 107 108 108 106 103 100 98 96 92 89 84 79 74
43 45 47 49 52 52 54 59 61 63 64 65 68 68 67 70 75 79 82 85 88 91 93 96 99 102 105 107 108 108 107 104 101 99 96 94 91 87 83 79 74 68 60
48 50 49 50 54 57 59 62 64 65 66 67 65 68 74 78 81 84 87 90 93 96 99 102 104 105 106 105 103 100 98 96 93 91 87 82 77 72 66 60 53 45 37
51 53 54 57 60 63 64 66 68 67 64 66 71 76 80 83 86 89 92 95 98 101 103 103 102 100 98 97 94 92 90 87 83 77 69 62 57 51 44 38 31 25 20
52 56 60 62 63 65 68 67 63 64 69 74 77 81 84 87 90 93 95 97 98 98 96 94 93 91 89 87 86 84 78 68 60 53 47 40 35 30 24 19 15 13 14
54 55 57 61 62 61 60 64 68 72 76 79 82 85 88 91 93 92 93 92 91 89 88 86 84 82 80 77 70 61 53 46 39 32 27 24 21 18 14 12 10 11 12
57 58 57 57 60 63 67 70 73 76 80 83 86 88 89 87 87 85 84 84 83 81 79 77 76 72 65 56 48 42 36 31 27 23 21 19 18 15 11 10 9 10 11

GFSGL_500_spd_084.txt.gz
Wind_Speed
14 13 13 12 12 12 12 13 15 18 19 22 23 24 25 26 28 30 30 30 36 36 37 43 39 45 40 41 49 52 46 44 47 47 48 47 56 55 59 60 59 58 60
17 16 17 16 14 13 12 17 22 24 26 27 26 26 24 23 28 36 38 38 30 34 36 40 46 36 34 33 43 39 39 44 52 51 56 58 59 61 64 63 63 61 62
18 19 20 21 17 17 19 17 18 25 24 26 31 29 26 24 27 27 30 30 36 34 35 27 31 32 35 35 38 41 44 48 50 54 57 60 64 65 67 67 66 66 66
23 22 23 22 21 21 21 19 19 21 22 20 19 23 25 23 23 24 26 28 28 30 30 30 33 36 37 39 40 43 45 47 52 56 58 56 67 67 66 68 68 68 68
24 26 26 28 27 25 25 24 22 23 25 26 25 26 25 23 23 27 29 31 32 33 32 34 37 40 41 42 45 48 50 50 55 63 63 64 67 68 67 68 68 70 72
26 28 29 32 35 34 32 28 28 28 25 23 26 28 22 24 29 31 32 35 37 38 39 40 43 44 45 48 49 52 55 57 60 64 66 67 68 68 69 69 70 72 71
28 30 27 25 24 24 25 26 28 28 26 26 27 28 28 30 32 35 37 40 41 43 45 46 47 48 50 52 54 57 59 61 64 65 66 67 68 69 71 71 72 75 77
29 30 29 26 26 26 27 27 28 28 27 28 29 32 33 35 37 39 41 44 46 48 48 49 51 53 54 56 59 61 63 64 65 65 65 66 66 69 71 74 79 83 85
32 29 29 30 29 28 30 32 31 31 32 33 35 36 38 39 40 42 43 45 47 49 50 52 53 55 56 59 61 63 64 64 66 67 69 71 72 75 78 80 85 86 84
32 28 27 26 29 29 30 30 31 32 34 35 35 36 37 38 39 40 42 45 47 49 50 52 53 55 56 59 62 65 67 69 70 73 76 78 78 78 82 89 87 87 89
31 30 28 31 29 30 31 31 31 32 34 34 35 36 38 39 40 42 44 47 50 51 54 55 56 58 61 64 66 68 72 73 75 76 79 81 83 88 88 87 90 90 90
34 33 30 32 33 32 32 31 33 34 36 37 38 41 42 43 45 46 48 52 53 53 55 57 57 58 62 65 68 69 73 77 80 84 85 83 84 86 88 89 91 92 93
36 42 39 38 36 38 38 37 39 39 38 41 45 45 45 48 51 51 51 51 53 55 58 61 64 67 71 72 72 74 78 80 81 82 83 85 86 88 91 93 93 95 96
43 41 42 42 43 44 44 44 40 43 43 45 48 49 52 54 53 58 59 58 62 65 65 64 70 74 74 74 76 77 78 79 81 84 86 89 91 94 95 97 99 100 100
48 45 45 49 49 47 44 51 48 49 50 50 51 54 55 58 59 62 62 63 68 72 74 71 71 73 76 77 76 78 81 83 85 88 91 94 97 99 102 103 104 104 104
53 51 52 55 53 53 59 53 50 53 57 55 60 61 62 65 66 64 62 61 64 68 71 74 77 77 76 77 78 80 84 87 90 93 97 100 102 104 106 107 108 108 107
51 49 51 56 65 63 63 64 58 53 50 42 52 51 62 62 59 60 63 66 68 71 73 75 76 78 78 79 83 87 90 93 96 100 103 106 108 110 111 110 110 109 104
54 60 63 63 46 43 42 48 50 54 59 54 58 60 59 58 60 64 67 69 71 72 75 75 75 77 82 86 89 92 96 100 103 106 109 110 111 111 110 108 104 100 97
52 60 53 49 50 51 53 55 57 58 62 63 61 57 58 60 64 67 69 71 73 74 73 74 80 84 88 91 95 98 102 105 108 110 111 110 108 105 101 99 96 93 89
40 49 49 51 53 53 56 59 62 60 54 53 56 59 62 65 67 70 72 73 73 72 77 83 87 90 93 97 101 105 108 109 109 107 104 101 99 96 93 90 85 80 75
35 36 30 43 49 56 51 50 51 55 57 59 63 66 69 71 73 75 75 73 74 81 85 88 92 96 100 103 106 106 105 103 100 98 96 93 90 85 79 71 65 59 54
48 49 49 53 53 54 54 56 59 61 63 66 68 71 73 75 77 75 74 78 83 86 89 93 98 101 102 102 101 99 96 93 91 88 85 80 73 65 57 51 45 40 34
51 52 53 55 55 57 61 63 63 65 68 71 72 72 74 73 73 77 80 83 87 91 95 98 99 97 96 95 92 88 85 82 80 75 67 60 52 45 39 33 28 23 18
53 54 55 57 58 59 61 63 65 67 68 70 71 69 71 75 78 81 85 89 92 94 94 92 90 89 87 83 79 77 75 69 62 55 49 43 38 32 27 23 19 15 11
55 58 60 61 62 62 63 65 67 67 66 66 69 72 76 79 83 85 87 88 87 85 84 83 82 78 74 72 70 65 58 51 44 39 36 33 30 26 22 19 16 12 9
58 59 60 61 62 62 61 61 62 65 68 70 73 77 80 82 83 82 81 80 79 78 77 73 69 67 65 61 54 47 41 36 33 31 31 30 28 25 21 18 14 11 8

GFSGL_500_spd_087.txt.gz
Wind_Speed
13 12 11 10 7 7 8 9 10 10 11 13 16 19 21 22 19 21 24 26 29 29 30 31 31 33 38 41 41 44 38 41 39 43 40 37 47 54 54 47 57 58 60
13 13 14 14 13 12 13 13 13 15 17 20 21 25 24 25 26 27 28 31 32 34 35 35 33 39 38 37 32 35 38 40 43 43 44 45 49 54 56 60 60 64 62
13 11 11 14 15 17 17 17 16 16 18 19 21 22 28 29 29 23 24 26 26 26 27 28 31 34 35 38 35 37 41 44 47 48 48 44 56 56 59 62 65 68 69
19 19 19 20 18 18 18 16 17 19 17 19 17 21 23 27 31 27 26 25 24 25 27 30 31 34 35 40 41 43 45 48 50 50 55 56 60 61 62 67 69 72 75
24 22 23 23 23 24 23 21 23 24 21 21 23 23 23 26 25 28 28 26 29 31 32 34 36 37 40 42 46 49 49 51 54 55 58 61 65 66 67 70 71 73 74
23 23 23 24 26 27 29 31 31 30 29 29 27 28 27 28 30 31 32 32 35 36 38 39 41 43 45 46 52 54 55 57 59 62 63 64 68 68 70 71 74 73 74
23 24 24 25 26 28 29 28 27 28 31 31 30 30 29 29 27 29 33 38 38 41 42 44 47 49 51 53 56 58 60 61 62 64 65 67 71 71 73 73 75 76 77
27 28 28 28 27 27 29 28 28 27 29 31 31 30 31 32 32 34 38 42 43 45 47 50 51 53 55 57 59 61 62 63 64 65 68 71 71 73 75 76 78 80 82
30 29 28 28 30 32 31 31 30 31 32 33 35 35 36 37 38 40 42 44 46 49 49 50 51 53 55 58 61 63 64 66 65 70 70 72 74 76 78 81 84 83 83
35 34 35 34 31 31 31 33 34 33 35 38 39 39 40 41 42 43 44 45 46 48 49 51 53 55 59 61 64 65 66 68 69 72 72 74 75 76 80 82 84 88 89
45 41 38 37 35 32 29 30 33 35 34 35 37 38 38 39 41 42 43 46 49 50 52 54 55 57 57 59 61 64 67 70 74 72 76 79 80 82 81 83 88 87 88
44 36 37 41 42 38 35 33 36 37 38 38 39 40 41 42 45 47 49 52 53 53 55 56 57 60 63 65 67 69 70 72 74 77 81 83 83 83 83 83 84 87 89
41 46 46 45 44 45 44 44 38 42 41 42 46 48 49 43 46 49 51 52 54 58 62 61 64 68 68 70 74 74 74 77 78 79 82 82 82 84 84 86 89 92 95
41 45 50 41 44 47 57 61 51 50 49 53 56 50 51 54 55 56 57 59 60 62 65 67 71 72 72 75 78 76 78 80 81 81 82 83 84 86 90 94 96 99 103
46 47 48 46 50 57 60 53 52 58 58 59 56 59 66 58 57 59 63 67 66 69 71 70 71 69 69 71 73 76 78 79 80 80 80 83 89 93 96 100 104 107 111
52 53 55 54 58 59 59 59 59 58 59 65 67 67 73 64 63 61 58 63 64 67 68 69 69 69 70 73 75 77 79 81 80 81 86 92 95 99 103 107 111 115 118
62 62 61 65 67 66 66 61 60 66 70 66 65 62 54 54 56 55 62 67 70 70 69 69 69 71 74 77 79 81 82 82 84 90 95 98 102 106 110 115 117 118 116
52 55 59 62 57 59 60 62 65 64 60 60 57 57 57 56 57 60 61 62 62 64 67 68 71 75 78 80 80 80 82 88 93 96 100 105 109 113 115 115 113 110 106
44 49 49 44 45 51 56 58 56 53 53 55 57 55 56 54 54 58 60 62 65 69 73 75 78 80 81 80 80 85 90 94 98 103 107 110 112 111 110 106 101 96 92
42 48 48 40 40 39 42 47 47 50 56 57 58 60 55 57 62 62 65 69 72 75 77 78 79 79 80 83 88 92 96 100 104 107 107 107 105 100 95 91 86 79 73
39 35 39 37 34 37 37 42 43 48 56 61 61 59 59 62 65 67 70 73 75 76 77 77 79 82 86 90 94 97 101 102 102 101 99 95 89 84 79 73 66 59 54
38 40 44 46 49 50 51 54 56 58 60 63 65 66 67 68 69 72 74 77 77 77 77 80 84 87 91 94 97 97 96 95 92 88 83 79 73 67 59 53 49 45 42
44 47 48 50 52 55 56 57 58 60 61 63 66 68 71 72 74 75 75 75 76 79 81 84 88 91 93 92 90 88 86 81 77 73 69 63 56 47 42 41 39 36 33
48 50 53 55 56 57 59 60 61 62 63 66 68 70 71 72 71 71 73 76 79 82 86 88 87 87 85 83 81 77 71 68 64 58 53 47 42 41 40 38 35 32 28
47 49 52 54 56 58 61 63 64 65 66 67 67 66 66 68 72 74 76 79 82 84 84 82 78 78 77 74 69 64 62 57 52 49 47 45 45 44 41 35 30 27 23
55 56 58 58 59 60 61 62 63 63 63 63 64 67 69 72 75 77 79 79 78 75 73 72 72 71 67 62 59 55 51 49 48 47 46 45 44 42 37 31 25 20 18

GFSGL_500_spd_093.txt.gz
Wind_Speed
4 6 7 4 3 2 3 3 5 8 11 14 16 18 18 19 19 20 22 23 22 22 21 19 19 22 25 25 28 32 34 36 39 37 37 41 39 39 38 40 45 45 48
7 4 4 9 8 8 7 6 6 8 11 12 13 14 13 13 14 17 19 19 20 21 22 25 24 28 30 33 35 37 38 38 43 42 41 38 39 41 43 46 47 49 51
12 10 6 4 6 8 11 12 12 12 13 14 15 16 15 16 19 21 21 22 22 25 27 28 29 34 36 35 37 37 39 39 41 42 42 41 40 42 46 47 49 55 56
16 15 13 12 11 9 9 12 16 18 18 19 19 18 18 18 16 20 23 26 28 29 30 33 35 35 37 40 40 38 39 40 42 43 44 46 47 48 50 52 54 54 60
20 19 18 17 16 13 13 13 17 19 20 21 22 23 22 21 19 19 22 26 27 31 37 38 37 38 39 40 40 39 39 43 44 45 49 49 50 54 55 54 53 65 57
23 22 24 22 20 20 19 17 16 18 22 26 26 26 27 26 25 25 26 28 29 30 33 35 41 42 41 41 42 43 45 48 49 51 53 55 55 56 55 58 58 59 62
27 25 26 26 25 24 23 22 21 21 21 22 25 28 28 30 30 30 32 33 31 33 37 39 40 43 41 43 45 48 45 51 55 56 57 58 57 58 60 60 58 65 65
34 31 29 28 31 30 29 27 27 28 26 23 22 25 26 25 27 29 31 31 31 33 36 38 41 41 42 44 40 45 54 57 57 58 57 59 62 64 63 64 69 72 72
31 32 30 32 34 36 34 32 31 32 32 28 29 30 30 29 28 29 32 34 34 36 39 42 43 43 48 50 48 55 49 61 60 59 62 65 67 68 69 72 73 76 80
42 38 41 38 38 38 38 36 33 32 32 31 34 33 31 31 31 30 32 35 38 40 41 42 45 47 49 52 55 56 58 62 64 67 69 68 70 73 77 81 84 85 87
44 46 45 47 45 44 42 40 38 35 36 38 37 37 36 33 35 34 35 39 41 44 46 46 47 47 50 53 59 62 64 66 68 69 71 75 79 82 86 89 92 93 89
46 44 42 43 46 50 50 49 46 43 43 45 44 42 42 40 40 39 42 44 46 47 49 49 51 53 52 64 62 66 68 71 74 74 77 80 82 87 90 91 91 89 87
47 46 45 43 46 47 43 49 57 55 49 50 53 50 47 45 43 45 46 50 50 54 53 57 52 65 69 62 68 69 72 74 75 79 81 81 83 82 82 81 83 86 91
48 46 48 46 48 48 50 52 51 53 59 55 54 55 56 53 61 50 53 56 58 64 60 65 65 58 69 77 72 70 71 75 76 78 81 83 77 78 83 84 86 88 90
47 48 50 50 50 50 51 52 51 52 55 62 62 59 54 59 58 58 69 61 54 65 59 62 61 73 72 73 71 70 70 70 70 72 75 77 79 80 82 84 86 88 89
40 41 44 46 47 52 51 49 48 47 48 52 47 51 54 54 51 58 65 71 61 69 59 55 62 67 67 66 67 66 66 70 72 71 74 79 82 85 87 88 88 90 93
31 36 42 49 51 62 60 53 57 53 52 52 55 55 52 66 67 65 74 70 44 36 44 45 48 51 52 55 58 62 65 68 70 72 76 79 82 84 86 88 91 94 97
38 28 23 24 21 26 42 51 56 58 58 56 53 64 56 51 46 45 49 49 52 55 52 52 55 61 64 67 67 69 70 73 74 76 79 81 82 84 87 91 94 97 101
40 37 41 43 40 28 26 22 27 31 31 33 32 32 36 39 44 49 47 46 49 54 60 63 65 66 65 66 67 71 74 75 76 78 80 82 86 89 91 94 97 98 97
32 35 36 35 35 31 27 28 30 33 35 37 38 36 36 38 41 44 48 53 55 56 58 61 63 64 66 67 70 73 74 75 77 80 84 87 89 91 92 92 92 90 88
37 37 38 36 32 31 31 33 34 37 38 39 42 45 48 46 48 51 52 53 55 57 60 63 65 68 69 70 72 75 77 79 82 84 86 87 88 87 87 85 83 80 74
44 38 38 41 38 37 37 37 36 38 41 43 45 47 49 51 52 53 55 58 60 63 67 69 71 73 73 72 75 77 78 81 83 84 84 82 81 80 80 77 72 68 64
38 37 35 36 39 37 37 39 41 43 44 46 47 47 49 52 54 56 59 62 65 67 68 70 71 71 71 74 76 78 79 80 81 79 76 75 74 73 68 65 62 59 56
42 39 39 38 38 39 42 41 42 44 46 47 50 52 53 54 55 57 59 61 62 64 63 64 67 70 73 74 76 75 76 74 70 69 69 69 67 63 60 58 55 53 49
45 44 47 42 43 46 47 49 50 50 51 52 53 55 55 57 60 62 61 60 62 64 67 68 69 73 73 71 71 71 66 64 63 65 66 63 60 56 53 50 48 47 46
48 48 50 50 47 47 50 52 51 51 54 55 55 56 58 58 59 59 62 64 67 68 70 71 70 70 68 67 66 62 60 60 62 63 60 55 52 49 47 45 44 43 38

GFSGL_500_spd_096.txt.gz
Wind_Speed
12 10 11 9 6 5 4 3 4 5 5 10 15 17 21 22 17 18 23 26 29 29 29 29 28 29 31 30 31 30 31 32 36 31 33 37 40 40 40 43 41 39 44
15 13 11 12 11 9 6 5 5 7 9 10 11 12 14 18 19 18 19 22 25 28 33 35 34 32 31 32 33 33 33 35 40 40 38 41 44 44 43 42 42 42 47
18 16 13 12 12 12 11 10 9 9 10 11 11 12 14 15 14 14 18 23 25 28 31 30 31 35 34 34 35 36 36 39 43 44 43 45 45 44 44 45 46 48 51
22 19 18 15 13 12 10 11 13 14 15 15 16 17 18 18 18 20 24 27 29 30 31 32 33 33 35 37 39 40 42 45 44 45 48 48 47 46 46 48 51 52 55
26 24 22 20 18 16 16 15 16 17 19 20 21 22 23 23 24 24 23 27 30 32 35 38 38 40 42 42 42 42 44 45 48 46 47 47 48 52 51 54 56 59 59
29 27 26 24 22 21 21 22 22 21 22 24 24 26 27 28 28 29 28 27 27 30 33 36 38 38 41 43 45 47 47 48 48 49 50 47 52 46 53 56 61 63 63
30 31 30 28 26 27 26 25 25 24 23 24 26 30 31 32 33 33 34 36 38 38 38 38 40 41 39 40 42 44 47 50 50 49 48 53 56 56 57 61 64 64 68
31 32 34 33 32 31 31 29 30 29 29 28 28 29 27 26 29 32 35 38 38 39 39 39 40 41 43 45 47 48 50 50 50 54 59 53 61 52 55 67 67 70 72
34 35 38 40 38 35 34 33 34 34 34 34 32 30 29 30 30 32 34 35 35 36 37 39 40 41 42 44 45 48 51 54 55 58 54 55 58 63 67 69 70 74 77
39 38 37 39 40 39 39 38 37 37 34 38 37 35 35 35 31 32 34 35 37 37 38 39 41 43 44 45 47 49 55 55 56 57 65 57 64 65 69 71 76 80 79
42 42 43 43 44 44 44 42 44 44 45 44 41 42 41 41 40 40 39 38 41 41 41 44 45 46 48 48 49 50 53 54 58 66 67 67 64 70 74 79 83 82 82
50 46 43 47 47 48 45 46 49 50 50 49 49 48 47 47 46 47 47 48 47 48 49 48 46 54 58 59 57 56 58 58 70 70 67 67 66 75 82 84 83 84 84
47 48 50 46 44 45 47 46 45 50 47 48 50 49 52 57 57 54 53 55 54 52 53 57 56 54 58 75 73 71 75 67 70 74 66 68 74 79 82 81 77 76 77
48 44 45 47 44 40 42 48 49 51 46 47 53 43 47 52 64 67 65 57 63 62 63 64 73 71 76 72 78 80 78 72 68 63 67 71 68 64 68 74 79 79 81
41 40 39 41 43 44 43 45 47 49 50 51 51 52 55 55 59 57 62 73 68 68 68 59 66 68 75 81 77 80 69 63 62 63 65 67 70 71 77 80 83 82 84
32 35 41 41 42 44 43 43 44 47 46 66 54 49 59 55 52 55 52 57 55 67 64 72 71 77 67 63 65 55 50 52 55 62 67 72 78 83 85 83 84 85 86
30 29 28 31 33 37 37 40 45 50 59 52 50 55 62 64 55 59 68 67 68 71 70 70 68 58 47 50 52 55 59 64 68 74 77 80 80 79 78 80 83 85 88
36 35 33 29 28 30 39 33 37 39 45 54 67 71 60 46 55 62 60 54 55 45 44 44 47 50 53 57 60 64 67 68 68 70 71 73 76 79 82 84 86 88 91
34 36 30 31 28 29 37 41 42 38 38 45 38 35 35 34 34 33 37 41 43 44 44 47 49 52 56 57 59 60 63 67 71 74 77 80 81 82 83 86 88 91 93
31 31 31 32 34 29 33 36 33 32 32 32 36 39 39 42 42 41 42 44 47 50 51 53 56 55 55 58 61 66 69 71 73 75 77 76 78 82 85 89 90 90 90
41 40 38 38 38 37 34 37 37 36 33 36 39 43 45 47 47 47 48 50 51 53 54 55 57 57 59 63 66 68 70 71 73 74 75 79 82 85 88 88 86 81 79
48 48 45 43 41 36 33 33 38 39 40 41 43 44 46 46 49 50 51 52 53 54 55 56 57 59 62 65 68 70 71 71 75 76 79 82 84 84 79 75 73 73 72
50 50 48 42 38 41 40 35 38 40 40 41 43 44 46 48 50 52 53 54 55 57 58 58 60 64 66 67 67 68 71 73 75 78 79 79 78 71 67 67 68 68 65
48 49 49 48 44 45 42 41 42 45 46 45 44 48 50 51 52 54 55 56 58 59 60 61 62 62 64 66 68 70 72 75 75 75 74 70 65 61 63 64 63 61 57
45 46 46 45 46 46 44 46 47 51 51 50 51 51 53 54 56 57 58 57 58 60 61 61 62 65 66 69 71 72 71 69 66 64 60 59 58 58 59 59 57 53 51
40 38 39 42 45 45 45 46 47 49 50 52 53 55 56 55 56 57 57 58 59 59 61 63 65 67 68 67 65 64 60 57 56 56 57 56 56 57 56 53 50 47 47

GFSGL_500_spd_099.txt.gz
Wind_Speed
18 17 17 15 12 11 10 6 6 5 6 10 13 15 17 23 29 37 37 33 31 29 30 31 32 32 28 29 29 31 36 37 38 33 35 37 35 38 39 42 42 43 43
20 18 18 17 14 13 12 12 9 6 5 7 6 8 8 12 28 22 28 26 23 25 28 30 32 34 32 34 33 34 37 39 40 34 38 38 41 41 43 45 43 44 44
23 22 19 20 17 15 15 16 14 10 9 9 8 10 10 11 11 14 16 16 19 21 26 31 33 38 39 38 38 38 39 40 40 41 40 42 41 43 43 44 47 46 47
26 25 22 21 20 16 14 15 15 16 15 13 13 14 15 15 16 18 18 18 20 24 27 31 33 35 37 38 40 41 41 41 43 45 46 48 47 45 48 47 45 47 50
28 27 25 24 24 21 17 17 15 14 16 18 19 19 20 20 21 22 23 24 26 28 31 32 34 36 37 39 41 42 44 46 48 49 50 49 48 51 49 49 49 53 54
30 29 31 28 27 27 25 23 21 20 20 20 20 21 22 24 26 26 26 27 28 28 30 34 37 40 41 43 45 47 49 51 52 53 52 52 54 54 55 55 55 58 67
34 33 33 32 31 31 31 29 26 26 25 24 23 23 24 25 27 29 31 33 34 35 35 36 36 38 40 42 44 45 48 50 50 50 51 53 54 53 55 53 54 59 58
32 31 35 35 34 33 33 33 32 31 29 28 28 28 27 25 27 28 32 36 37 39 41 42 44 45 46 46 47 47 49 51 51 51 50 53 55 56 58 61 65 65 62
32 32 31 35 37 38 37 35 36 37 35 33 33 33 32 32 31 32 35 35 33 33 36 38 40 41 42 44 45 47 48 49 51 50 51 58 57 58 63 65 69 65 73
34 34 33 37 39 36 40 40 40 40 39 40 37 37 38 38 39 38 39 39 38 37 37 40 43 45 45 46 47 48 47 51 52 58 61 56 63 61 61 63 65 75 70
39 39 38 39 39 42 41 44 46 43 43 43 41 42 43 44 46 43 45 45 46 45 44 44 44 45 46 47 50 49 49 51 59 56 59 59 62 65 73 71 71 81 84
39 41 38 35 36 37 44 46 47 45 42 45 50 48 48 49 51 51 50 51 52 52 52 48 51 54 55 55 56 56 55 62 55 69 73 82 77 83 77 83 88 82 78
44 43 45 43 38 36 38 44 46 49 48 46 48 41 47 38 54 53 54 54 52 53 56 60 66 63 62 66 64 75 71 63 72 73 82 83 84 83 84 83 72 64 65
35 39 44 45 45 43 43 42 44 46 46 45 43 47 52 43 50 55 56 56 46 54 55 59 72 66 76 68 66 72 78 72 80 80 76 80 83 78 69 62 62 66 71
36 36 36 37 40 43 41 36 37 41 41 43 42 53 44 42 46 50 52 53 53 57 61 64 61 67 83 75 74 72 80 81 73 70 58 59 56 58 61 67 71 76 78
31 32 36 37 34 35 36 37 38 38 37 42 43 46 52 49 60 58 60 64 66 66 69 62 63 64 67 62 67 68 57 54 53 54 59 61 63 68 73 72 70 73 74
32 34 37 36 34 35 34 36 40 40 43 44 41 42 48 53 57 54 57 58 62 69 55 58 63 64 56 51 51 48 50 53 56 60 62 60 59 61 65 68 71 73 76
37 37 37 36 36 37 37 37 35 37 35 38 40 43 43 44 39 40 38 39 42 50 42 43 42 43 46 48 50 53 54 56 57 56 58 61 63 65 68 71 75 79 83
28 30 32 31 33 35 37 39 39 39 40 41 36 36 36 37 40 39 41 39 40 41 45 45 46 47 49 52 54 54 54 55 57 59 60 63 67 72 74 76 80 82 84
34 35 37 37 38 39 38 39 39 39 40 39 39 37 37 40 40 41 44 44 43 45 48 51 51 52 53 54 54 54 56 58 60 62 66 70 73 75 77 80 82 83 87
41 43 45 45 45 46 47 47 48 48 47 45 42 42 42 44 44 46 48 50 51 51 51 52 53 54 56 57 59 60 62 64 66 68 71 73 75 78 79 81 83 86 86
49 50 51 52 53 52 52 51 51 49 44 42 41 43 45 48 49 50 52 51 50 50 50 52 54 57 60 62 64 67 67 68 69 71 72 73 74 77 79 81 81 78 72
51 52 52 52 52 52 50 51 49 47 44 42 42 42 42 45 48 49 49 50 50 52 54 56 58 61 63 65 66 66 67 68 70 71 72 74 76 76 74 72 68 64 61
49 50 50 50 49 47 46 44 45 45 48 49 48 44 46 49 52 55 56 54 54 57 58 61 63 64 65 65 66 67 68 69 71 72 72 72 70 66 63 58 57 56 56
42 47 49 47 47 46 45 45 45 46 47 49 49 49 50 50 52 54 55 58 60 61 62 63 64 64 65 65 66 67 68 69 69 69 68 65 60 55 53 53 53 53 54
36 39 42 44 44 45 46 46 44 44 44 46 48 49 51 51 53 55 56 58 60 60 61 62 63 63 65 66 66 66 66 65 65 63 59 54 50 49 50 50 52 52 51

GFSGL_500_spd_102.txt.gz
Wind_Speed
25 21 19 16 14 14 15 11 8 7 9 13 9 13 16 21 30 37 36 37 28 29 34 34 36 37 34 31 32 35 35 33 33 35 36 36 38 39 40 41 40 40 41
26 22 21 18 15 14 15 14 9 7 7 9 9 7 9 12 20 22 28 30 23 30 32 31 28 27 27 29 29 31 33 30 32 31 36 39 41 43 44 41 42 43 43
27 24 24 21 18 15 14 16 15 12 9 9 9 8 7 6 6 8 19 14 12 17 22 20 16 22 26 30 31 33 35 36 36 39 39 42 44 45 44 45 47 47 48
29 26 26 24 21 19 15 16 15 16 15 12 11 11 11 9 9 10 9 13 15 16 17 18 20 22 25 30 34 37 40 41 41 42 42 43 47 46 47 49 50 52 50
30 28 29 26 24 23 20 20 16 15 16 13 12 13 15 15 15 15 16 18 20 21 22 22 24 26 30 34 37 41 43 45 46 46 48 49 48 48 50 51 53 53 52
30 30 29 29 29 28 26 25 23 20 20 19 18 16 14 17 19 20 20 22 24 25 26 27 29 31 34 36 39 41 42 44 46 47 48 52 52 53 54 55 51 50 52
31 33 33 31 32 33 31 28 28 26 25 24 23 22 21 18 18 20 23 24 26 27 28 30 30 32 34 36 38 40 41 43 46 47 49 52 53 53 52 52 53 54 55
30 32 31 35 36 35 34 33 32 32 30 29 29 29 28 25 24 23 24 25 26 28 30 33 35 37 39 42 44 45 47 49 50 51 53 54 54 53 54 54 53 60 61
36 30 29 28 32 32 35 37 36 37 36 35 35 33 32 32 33 32 32 32 30 29 31 32 34 36 39 41 42 44 45 48 48 50 51 53 54 55 56 56 57 66 69
33 24 24 24 22 26 27 28 32 37 39 38 38 37 38 38 38 39 40 40 39 37 37 38 38 39 40 40 42 44 47 48 50 51 52 52 54 57 56 59 67 73 68
31 28 29 29 31 33 35 37 37 38 38 40 42 42 42 41 43 45 48 49 45 44 47 46 46 44 45 47 48 47 46 48 49 55 56 62 61 61 68 74 70 75 77
35 35 35 34 36 36 33 32 34 39 42 42 41 42 42 38 40 40 47 51 56 52 53 53 55 53 52 53 53 55 59 58 63 60 63 63 69 74 76 74 77 86 89
37 39 38 39 35 35 37 36 36 34 34 36 38 42 45 48 47 45 43 49 54 62 71 63 67 55 61 54 55 62 69 69 65 64 74 74 74 81 87 83 86 86 82
36 33 33 32 32 30 31 32 33 35 36 38 40 40 41 43 44 53 49 51 47 58 53 49 56 58 60 59 68 71 68 66 69 75 73 78 82 83 79 69 57 56 55
29 32 29 27 28 28 29 29 29 31 33 36 37 39 42 41 45 45 49 58 48 46 51 50 54 61 64 67 64 67 74 67 71 70 76 75 65 55 54 56 58 63 68
24 24 26 29 30 29 27 29 29 31 31 31 34 38 39 41 44 46 51 50 49 52 58 57 66 55 61 67 69 78 71 69 68 65 60 59 58 56 57 61 63 62 62
33 33 35 36 36 35 33 30 28 30 31 33 31 35 39 43 45 48 48 48 51 56 52 44 39 41 42 45 44 53 50 51 51 51 53 56 60 60 59 59 61 62 63
37 37 38 38 35 34 33 33 33 33 36 35 35 36 37 40 42 45 49 51 49 47 46 44 40 39 39 39 42 44 46 47 50 52 55 57 57 57 58 61 63 66 68
23 24 26 27 27 28 28 28 30 32 32 33 34 36 38 39 42 43 44 45 47 49 46 45 44 42 44 45 46 49 50 52 53 54 56 57 58 60 62 64 67 70 72
30 30 32 33 35 36 37 37 38 39 40 42 44 45 46 46 46 47 47 48 49 48 50 51 50 51 52 52 51 50 50 51 53 56 59 61 63 66 68 69 71 73 75
36 37 38 40 41 43 43 45 46 48 50 51 53 53 52 52 53 52 51 51 53 53 54 55 56 56 53 53 52 53 54 55 58 60 64 66 67 68 70 72 73 74 77
43 44 44 45 47 47 49 50 52 53 54 55 55 54 52 49 48 46 48 51 52 54 53 53 54 55 56 56 57 58 58 62 64 66 68 69 69 70 72 72 74 76 77
43 45 47 48 49 50 50 50 51 52 52 52 50 48 46 46 47 50 49 50 51 52 56 57 59 61 60 61 62 62 64 67 69 69 69 69 70 70 71 73 74 75 73
44 45 45 45 44 41 41 43 46 49 49 48 47 48 47 48 49 49 50 52 54 56 57 59 59 60 61 62 63 65 66 67 68 68 69 69 70 72 72 72 70 68 60
43 42 43 43 43 41 42 42 43 46 48 46 46 45 44 44 45 47 49 51 54 55 56 57 59 61 62 64 64 65 66 68 68 69 70 71 71 70 68 64 57 50 48
47 47 46 46 46 44 44 44 44 44 46 48 48 48 50 50 50 51 52 54 55 57 58 59 61 62 63 64 65 66 67 69 70 70 69 68 65 60 53 48 46 48 50

GFSGL_500_spd_108.txt.gz
Wind_Speed
50 52 49 48 42 34 30 28 24 21 18 13 14 12 17 21 23 26 30 32 30 29 31 23 23 24 25 22 24 26 22 24 28 33 34 36 35 29 28 26 25 29 32
53 54 51 48 41 32 31 29 24 20 17 14 12 11 10 17 18 15 21 22 24 31 29 27 27 28 31 30 25 27 27 31 33 30 32 33 33 32 27 25 28 31 34
55 53 51 45 40 34 31 30 24 20 18 15 14 11 11 10 11 9 12 17 25 23 25 29 32 36 38 32 28 29 29 31 31 28 30 33 33 34 31 31 31 36 38
56 49 47 46 39 37 33 29 25 22 19 17 18 14 11 9 10 11 8 9 20 22 25 24 29 32 28 26 27 28 29 28 26 25 28 31 35 35 34 35 39 43 45
47 45 44 40 39 34 32 30 27 23 19 16 15 16 15 13 11 9 9 9 9 11 15 14 18 22 20 21 23 25 25 26 26 27 29 31 34 38 38 40 44 47 52
47 46 39 36 36 33 34 32 29 26 22 18 15 14 13 13 12 11 12 11 12 13 14 16 18 17 18 20 22 23 24 25 25 26 29 33 36 40 42 47 50 54 55
44 38 33 34 36 35 36 34 32 29 24 23 21 18 17 16 14 14 14 13 15 17 19 21 22 22 24 26 26 27 28 29 30 32 35 38 41 44 48 48 50 55 55
41 38 33 34 35 36 36 36 33 30 27 24 23 23 22 20 18 17 16 16 17 18 19 19 19 21 24 26 28 30 32 34 35 37 39 42 44 46 48 50 53 56 60
37 37 34 32 34 37 40 37 34 30 28 29 31 27 25 25 25 24 22 22 23 23 21 23 25 26 27 29 31 32 34 36 37 40 43 45 47 49 50 51 53 55 57
37 38 39 37 35 34 41 39 36 35 36 35 28 27 28 29 30 29 29 28 28 28 27 29 31 32 31 33 37 40 42 42 43 44 46 48 51 53 54 55 57 57 58
45 41 35 34 33 38 38 43 40 37 38 35 36 34 31 29 29 30 31 33 33 33 34 36 34 35 41 35 40 40 45 46 46 51 57 61 61 60 63 64 67 67 65
19 29 40 39 26 24 28 26 25 20 21 24 26 27 30 31 33 35 36 38 38 39 38 34 33 36 37 44 45 43 48 50 53 55 58 64 73 72 71 70 74 81 80
27 28 35 36 25 24 24 24 23 26 27 27 29 29 32 34 35 37 38 40 42 43 42 42 43 45 48 44 43 49 54 52 57 54 53 57 57 54 59 59 62 74 81
24 25 26 24 22 22 22 24 28 30 29 28 31 35 37 38 37 41 42 43 42 45 47 46 43 49 53 50 56 60 57 56 57 59 58 59 59 58 60 60 61 64 61
21 21 22 20 22 24 23 25 28 31 30 31 33 35 36 39 39 40 42 44 45 47 48 50 53 53 54 54 56 58 52 54 55 55 54 55 56 55 55 56 56 54 54
14 18 20 22 21 22 24 26 29 31 29 28 26 28 29 32 35 37 40 42 42 45 47 49 52 52 52 53 54 53 51 51 51 52 53 55 52 54 53 53 54 54 54
13 17 20 24 26 28 30 30 29 28 27 28 30 32 32 34 36 38 41 44 46 46 46 46 45 48 51 51 52 52 54 53 52 52 53 53 52 53 54 55 56 58 59
21 21 22 24 25 25 27 30 32 31 31 33 34 35 36 39 41 43 45 47 48 49 48 46 47 48 48 49 52 53 54 53 52 52 53 54 55 56 57 59 60 62 62
22 22 23 23 22 23 24 25 26 29 30 31 32 32 33 35 37 39 40 41 43 45 46 47 49 51 53 55 56 57 56 56 56 55 56 56 57 59 60 59 58 60 61
22 23 23 24 25 25 26 27 29 31 32 33 35 36 38 40 41 43 46 47 48 50 51 52 54 55 56 57 57 57 57 56 55 54 55 55 56 57 59 59 60 61 62
24 25 26 27 28 29 31 33 34 35 37 38 39 41 42 43 44 46 48 50 51 52 51 52 53 52 53 52 53 54 54 55 56 58 59 59 60 62 63 64 65 65 64
32 33 34 35 36 37 38 39 40 40 40 41 42 43 45 46 48 49 50 50 49 48 49 50 50 51 51 52 54 57 58 59 60 60 61 61 61 62 63 63 63 64 66
38 38 39 40 41 42 42 42 42 42 43 43 44 45 46 46 47 48 48 48 48 49 50 50 51 51 52 52 53 53 54 55 56 56 58 59 61 62 63 65 66 66 67
42 43 44 44 46 46 46 45 45 45 45 45 46 47 48 50 50 51 52 53 54 54 53 53 52 52 52 53 54 56 57 58 59 60 61 62 64 64 65 65 66 67 68
45 46 46 47 47 48 48 48 47 47 48 48 49 50 51 52 53 54 54 55 55 54 54 53 53 53 53 54 55 56 57 58 59 61 62 62 64 65 66 67 67 66 64
47 48 49 50 50 50 51 51 51 51 51 52 53 53 53 53 53 54 53 53 53 53 54 54 55 56 56 57 58 59 60 61 62 62 64 65 65 66 66 64 62 58 54

GFSGL_500_spd_111.txt.gz
Wind_Speed
42 42 42 44 45 48 50 49 37 30 27 27 27 25 19 18 22 25 27 30 28 30 25 19 19 20 19 23 26 26 22 24 22 24 26 32 35 38 36 36 31 31 26
45 43 43 44 44 50 51 49 37 30 28 27 27 23 19 18 19 25 27 29 31 34 34 30 30 25 21 23 23 28 24 26 27 27 29 29 38 41 40 39 37 31 26
47 45 43 44 45 53 52 49 37 31 29 29 27 23 22 16 16 18 22 22 24 23 24 23 29 26 27 29 33 29 30 27 31 31 31 34 36 39 40 40 37 34 31
44 42 41 45 48 55 53 47 39 33 30 30 26 25 22 17 13 13 12 12 14 22 24 28 26 30 28 34 35 36 32 32 33 34 31 33 34 36 36 36 35 35 36
43 43 48 54 55 55 52 44 38 36 31 31 26 25 23 21 17 14 13 12 9 11 17 27 28 30 28 28 27 31 29 31 31 29 27 28 29 29 29 33 36 37 38
39 43 49 54 55 53 46 43 37 37 34 32 28 24 22 22 21 18 16 14 11 11 11 11 12 14 15 18 18 20 22 23 25 27 29 28 29 31 32 35 37 41 44
39 43 50 51 46 44 46 44 38 36 37 34 30 26 21 19 18 16 15 15 15 16 16 16 16 17 19 20 22 25 26 28 28 28 29 29 30 32 33 37 40 45 48
36 45 47 47 48 48 49 38 39 38 36 35 31 29 25 23 19 16 15 14 14 14 14 13 15 17 20 24 27 27 27 28 27 27 29 31 33 36 39 42 45 48 51
37 45 46 46 44 45 43 38 39 39 36 34 31 28 27 26 25 24 22 22 22 21 19 18 20 22 23 25 26 26 26 27 27 30 32 34 35 38 40 43 46 49 52
37 43 47 47 43 33 32 36 38 38 38 35 31 31 31 30 27 26 27 26 27 27 26 25 26 26 26 27 27 29 30 31 32 30 32 34 37 38 42 45 48 56 61
37 38 36 44 39 35 34 35 37 38 43 46 45 41 39 33 34 30 31 31 30 29 28 28 28 30 28 27 30 32 33 34 34 39 39 37 40 44 49 53 55 59 63
41 43 51 45 42 39 36 37 40 31 35 38 37 38 39 36 35 32 31 31 31 32 32 24 23 23 36 34 34 36 38 40 39 41 45 51 49 48 52 55 57 55 59
37 35 49 51 48 43 42 45 51 31 18 23 24 25 28 30 31 30 31 33 35 37 37 37 39 43 43 37 41 48 45 44 54 47 52 55 57 61 61 66 65 62 58
31 34 25 20 22 30 38 29 31 29 27 25 24 25 28 31 30 32 36 38 39 40 42 42 43 44 46 46 50 50 52 56 54 56 60 63 63 67 63 66 64 62 60
29 26 31 34 33 31 33 29 26 25 26 26 27 29 30 32 34 38 41 43 44 43 44 47 49 49 47 51 50 51 55 57 59 59 60 61 58 56 57 59 60 60 59
14 22 29 32 34 29 28 27 28 28 28 29 30 32 35 36 39 41 42 41 40 40 40 41 43 45 47 49 49 50 52 54 54 53 54 55 56 57 56 57 58 59 59
11 15 17 19 19 20 21 25 26 26 27 29 30 32 32 33 34 34 36 37 37 39 41 42 45 47 48 50 51 54 56 56 56 56 55 55 56 58 60 62 63 63 63
13 15 15 16 18 21 25 28 30 32 32 31 31 32 34 35 36 38 39 40 42 43 44 46 49 51 52 53 54 53 53 55 57 58 60 61 61 62 62 62 63 63 62
18 18 20 21 22 24 26 27 29 31 32 34 36 36 36 37 39 40 41 41 41 42 44 46 48 49 51 53 55 57 58 59 61 62 62 63 63 62 63 63 62 61 61
18 19 21 21 22 23 23 24 26 27 28 29 31 32 34 36 38 40 41 42 44 46 47 49 50 52 53 54 56 58 58 59 58 59 59 59 60 61 61 62 64 64 65
23 23 23 24 24 24 26 28 29 29 31 32 33 35 37 37 39 41 41 42 43 45 47 49 51 53 53 54 55 56 56 56 56 56 56 58 58 59 60 61 62 61 61
29 30 31 32 32 34 34 34 35 36 37 38 38 40 42 42 44 44 44 45 47 49 51 52 53 53 54 55 56 57 58 57 58 58 58 58 58 59 60 61 62 62 64
36 36 37 37 38 39 39 40 41 41 42 43 44 45 45 46 47 47 47 49 50 52 53 54 54 55 56 58 60 60 59 60 59 58 58 57 58 58 59 61 62 64 65
40 41 41 42 44 44 45 45 46 47 48 49 49 49 49 48 48 49 51 52 53 54 56 56 56 57 58 59 59 59 58 57 58 58 59 59 61 62 63 65 65 66 67
44 45 45 47 48 49 50 51 51 51 51 51 52 53 53 53 54 54 55 57 57 57 58 58 58 57 57 57 58 59 59 60 60 61 62 63 65 65 66 66 67 68 68
46 47 47 48 49 50 51 52 53 54 54 54 55 56 57 57 58 58 58 57 57 58 57 57 58 58 59 59 60 61 62 62 63 64 65 66 67 67 68 68 68 66 64

GFSGL_500_spd_114.txt.gz
Wind_Speed
41 41 36 40 39 38 38 38 35 36 39 35 30 31 28 27 28 27 25 23 22 24 27 24 22 18 16 14 14 19 20 22 25 26 24 25 29 31 30 34 36 36 37
39 40 40 39 41 39 40 40 39 37 39 37 30 31 27 26 28 25 25 26 28 27 29 29 31 28 21 17 17 17 25 27 25 25 24 25 24 27 33 34 35 36 39
42 42 43 42 43 41 41 39 41 40 40 37 30 32 28 28 29 25 25 23 27 28 30 33 35 33 31 26 18 17 26 29 32 26 31 28 27 28 29 34 37 40 40
40 40 42 43 41 42 42 40 43 41 40 38 31 31 28 28 28 23 22 18 13 16 26 28 29 30 30 25 24 24 29 31 30 30 33 34 30 30 32 33 36 38 39
39 40 40 39 41 36 37 41 44 43 41 39 33 30 29 29 27 24 21 16 17 16 14 19 27 29 25 26 30 32 32 32 32 33 32 28 33 30 24 27 29 31 33
43 45 43 43 42 43 42 46 47 43 41 37 35 32 30 29 26 24 23 19 17 16 13 9 8 24 26 21 20 16 16 12 13 17 19 21 25 27 30 32 32 33 35
45 46 45 44 44 46 49 49 46 43 42 38 37 34 32 29 26 21 19 19 20 19 17 14 12 13 14 16 16 17 19 21 20 22 24 26 27 30 32 32 34 35 37
42 36 33 36 39 39 41 43 42 42 42 40 41 37 35 30 27 23 21 20 18 17 17 18 18 18 19 19 19 19 21 20 22 25 27 28 28 31 32 34 35 37 39
43 36 30 33 37 36 39 41 44 44 45 43 42 37 35 32 32 30 28 26 24 22 21 20 19 19 19 19 19 19 20 22 23 25 28 29 30 32 35 37 39 41 41
37 29 25 26 33 35 40 44 44 45 44 47 38 37 37 36 35 35 34 32 31 29 27 27 25 24 25 25 25 26 26 27 29 30 32 34 36 36 36 39 39 39 41
29 29 23 26 31 41 41 40 42 48 59 41 39 38 39 39 40 38 35 32 32 32 30 29 29 30 30 29 30 31 30 30 32 33 36 37 39 41 41 40 41 43 46
43 37 30 34 32 32 35 34 48 46 38 37 41 42 45 47 44 40 41 39 38 33 33 32 30 30 29 31 31 33 33 34 37 36 39 39 38 41 46 45 50 51 52
41 42 42 37 44 39 43 47 44 39 36 39 43 39 41 42 50 49 48 41 38 36 31 30 32 33 34 35 35 34 34 42 43 40 38 44 52 50 50 53 56 61 64
23 33 45 54 57 46 51 54 46 42 41 39 37 33 34 35 39 40 45 41 39 32 32 29 31 32 33 40 40 40 46 50 49 51 55 57 57 60 64 63 59 59 60
4 24 29 32 40 41 38 44 42 48 47 37 31 30 27 27 34 34 33 35 36 35 37 39 41 44 45 46 45 46 50 49 48 52 53 52 53 56 57 58 59 60 60
12 12 14 23 30 32 34 36 36 35 34 36 34 33 32 34 36 36 38 36 37 38 39 42 45 46 47 45 43 43 44 45 46 48 49 50 51 52 53 53 55 58 59
12 14 18 18 20 19 26 31 33 36 37 35 34 33 34 35 35 35 37 39 39 39 40 40 41 42 42 43 45 46 46 47 49 49 49 50 51 54 56 58 61 63 63
7 9 11 13 10 14 17 22 24 28 32 27 26 27 29 31 33 33 34 34 36 37 38 40 41 43 45 46 47 46 47 48 50 51 53 56 58 60 61 63 65 64 65
16 15 13 13 13 14 17 20 21 24 27 29 31 31 34 35 35 35 37 39 40 40 40 40 40 41 42 44 46 48 49 51 52 54 57 58 59 60 61 63 63 64 63
15 14 15 16 18 19 22 23 24 24 25 25 26 28 29 29 30 30 32 34 36 37 39 41 42 44 46 46 48 50 52 54 55 56 57 58 58 59 62 62 62 63 64
19 19 19 19 20 21 22 23 24 25 27 28 29 30 30 30 32 33 35 36 38 39 42 44 45 46 49 49 50 52 53 54 56 57 58 59 61 62 64 65 66 66 65
23 25 26 25 25 26 28 29 30 31 32 33 33 34 35 37 38 40 41 42 43 44 46 47 49 50 51 53 54 54 55 57 59 60 61 62 63 64 64 65 65 64 64
33 32 32 32 32 33 33 34 35 36 38 38 39 41 42 43 44 45 46 48 49 50 51 52 52 53 55 56 56 57 58 60 60 61 61 63 64 64 64 64 65 66 66
41 42 42 41 41 40 40 40 41 41 42 43 45 46 48 49 49 50 51 51 52 52 53 55 56 56 58 58 59 60 60 60 61 61 63 64 65 66 66 67 68 68 69
43 43 45 46 46 44 44 44 45 46 46 47 49 50 50 52 52 53 54 55 56 57 58 58 58 59 58 59 60 60 61 60 62 64 66 67 67 67 67 69 69 70 71
43 43 43 44 44 45 46 47 47 48 50 51 52 53 54 56 56 57 57 58 58 59 59 59 58 58 59 60 61 61 61 64 65 65 66 66 67 68 69 69 70 70 71

GFSGL_500_spd_117.txt.gz
Wind_Speed
43 43 43 42 36 43 39 39 39 35 34 34 32 31 25 24 27 28 28 27 25 25 23 26 26 26 23 21 25 22 28 32 29 27 21 24 29 32 31 32 31 30 32
42 40 43 40 38 42 40 39 41 38 34 35 31 31 26 25 28 28 29 26 25 26 24 27 29 28 28 25 18 19 18 21 22 26 20 23 28 28 27 27 28 29 30
38 39 37 36 38 40 40 40 41 38 37 40 33 34 29 26 28 29 29 26 26 25 25 26 30 28 31 29 30 15 14 20 25 26 26 25 29 26 24 25 26 27 28
36 36 39 43 42 44 42 42 44 42 39 43 36 34 30 26 30 29 28 24 25 21 21 18 28 29 32 31 31 30 25 23 23 27 31 30 27 28 29 27 24 26 30
37 39 40 42 42 40 41 43 42 42 42 43 39 37 30 28 31 30 28 24 24 20 21 19 14 22 28 29 31 36 31 28 28 29 30 31 30 31 32 27 29 33 35
38 38 39 39 40 39 38 38 41 40 43 44 41 38 32 30 31 31 28 25 24 21 22 18 15 10 23 32 33 32 35 31 32 26 24 30 32 31 27 26 28 30 34
35 38 39 39 40 41 41 42 41 43 45 45 44 39 35 31 32 32 26 25 23 24 24 22 18 14 11 21 29 24 22 24 21 16 18 19 24 26 29 31 34 36 35
37 40 43 46 45 43 44 46 48 50 48 47 43 39 36 33 32 32 27 26 23 24 23 22 21 19 17 18 17 16 18 20 21 25 25 25 25 26 29 32 34 36 36
39 41 43 41 34 32 32 38 45 47 48 44 43 39 37 34 32 33 29 29 25 25 23 22 21 20 20 20 21 23 24 25 25 26 28 29 28 29 31 32 34 36 37
41 39 40 34 33 32 29 34 36 37 37 41 40 39 38 35 40 35 32 33 32 31 29 28 26 25 23 24 24 24 25 26 27 29 30 31 31 33 35 36 37 39 42
33 29 29 30 24 25 30 35 35 35 37 40 40 41 39 39 43 37 35 38 39 39 37 34 33 33 32 30 30 30 30 31 32 32 32 34 35 35 37 40 41 40 40
31 27 24 31 28 24 26 34 34 35 36 43 43 42 40 49 47 39 39 42 44 44 41 38 36 37 36 36 35 34 34 33 34 38 38 38 37 40 42 43 46 46 47
15 18 32 39 39 25 26 32 37 30 36 42 47 42 47 54 45 40 43 44 47 44 43 41 40 42 37 36 34 34 35 36 35 37 38 42 44 43 46 46 48 53 56
13 10 14 33 38 41 31 33 39 42 39 39 45 51 55 50 40 43 47 51 42 48 50 51 48 41 37 32 34 30 33 37 37 41 46 46 49 50 52 53 53 55 56
6 2 9 16 30 38 36 40 46 49 39 47 41 38 38 38 42 42 45 41 36 41 32 43 40 39 32 38 40 39 42 46 49 50 47 51 54 54 51 50 53 54 53
9 6 5 8 19 29 38 46 47 41 39 40 35 37 43 44 35 33 30 32 32 31 40 50 43 41 47 45 42 43 45 46 46 45 45 45 47 49 49 49 50 51 52
7 3 4 6 14 20 28 35 43 44 41 42 45 43 47 50 38 37 35 34 36 39 44 45 48 45 43 43 42 41 41 41 42 44 46 46 47 47 48 50 52 54 55
16 9 5 7 5 9 13 20 27 30 34 36 38 33 35 39 39 38 43 45 43 43 42 38 37 38 39 40 41 42 44 45 44 44 45 47 49 50 52 55 56 57 58
13 17 17 14 9 5 5 12 15 15 17 20 23 24 29 33 35 38 36 33 35 36 36 37 38 40 42 42 40 40 42 44 45 47 49 50 52 54 56 57 58 59 60
12 13 13 14 15 14 14 12 12 13 14 15 17 19 22 28 31 32 31 32 34 32 33 34 36 37 39 41 42 43 44 46 48 50 52 53 54 56 57 59 60 62 64
15 15 15 15 17 17 17 17 16 16 18 20 21 22 23 24 25 26 28 30 31 31 32 34 37 39 41 43 44 46 49 50 52 53 55 56 58 59 61 62 63 64 67
23 22 21 20 20 21 21 23 23 23 24 25 26 27 28 29 30 32 33 34 36 38 40 42 45 46 47 48 49 51 52 54 55 56 59 60 61 63 65 66 66 67 68
30 30 29 29 30 30 30 29 29 30 30 32 33 34 35 36 37 38 39 41 43 45 47 48 50 52 53 54 55 55 56 58 59 61 62 63 64 66 66 66 67 67 68
36 36 36 36 37 38 39 40 39 39 39 39 40 41 41 42 43 44 45 46 47 49 51 52 53 54 55 57 58 59 61 62 62 63 65 64 65 66 66 67 69 70 70
41 40 42 41 40 40 42 43 43 44 44 45 45 45 45 46 46 47 47 48 50 51 53 55 56 57 58 59 61 62 63 64 64 64 64 65 65 66 67 71 70 69 70
49 48 47 46 45 44 44 44 44 44 45 45 46 47 48 48 49 50 52 53 54 56 58 60 61 61 63 63 63 63 64 63 63 63 64 66 67 68 69 70 71 71 72

GFSGL_500_spd_120.txt.gz
Wind_Speed
47 44 45 52 51 51 47 45 46 43 41 38 37 35 36 35 31 30 27 27 27 26 26 27 24 25 27 24 26 26 26 32 29 29 35 34 31 30 31 34 35 35 34
46 42 42 47 49 47 46 45 47 44 41 39 39 37 38 35 34 32 28 28 27 26 27 27 26 26 27 29 28 29 15 27 33 32 33 32 26 29 33 34 33 33 34
51 42 43 45 44 40 43 49 46 44 41 40 40 40 40 36 34 34 31 29 27 26 27 26 27 28 28 28 30 28 23 24 24 32 32 29 26 26 25 27 28 28 28
40 37 36 35 38 41 41 41 43 42 41 40 40 41 43 38 39 36 32 29 27 27 26 24 25 24 21 27 30 28 26 29 26 21 26 29 29 27 25 26 25 21 22
35 35 36 36 38 38 39 42 41 41 40 41 43 44 46 41 40 37 34 29 27 28 26 25 24 22 21 21 28 29 31 28 30 28 23 24 27 29 27 28 26 24 25
34 34 34 36 39 41 41 43 42 43 43 44 44 46 46 42 42 40 35 29 28 28 27 25 25 21 21 19 28 30 32 33 32 32 34 29 31 29 29 28 29 29 32
38 35 38 40 41 42 41 41 41 40 41 42 43 45 45 44 44 40 36 30 29 30 28 25 27 23 22 21 17 25 36 33 35 37 39 29 23 22 29 33 32 32 33
32 35 39 40 42 42 41 41 40 41 41 42 44 46 48 48 46 41 36 31 30 31 28 25 25 23 23 22 20 17 18 27 24 24 25 23 19 21 23 26 31 34 36
32 34 36 39 41 41 42 44 48 48 48 48 53 52 51 49 46 40 36 32 31 32 29 27 24 23 24 24 22 21 20 19 19 19 21 23 27 30 31 32 34 36 37
36 37 39 39 41 43 45 47 46 45 48 53 53 59 51 49 43 40 35 33 34 34 32 30 25 24 24 23 22 22 24 25 26 27 28 30 31 31 32 34 35 37 38
39 38 42 43 41 42 38 35 29 33 40 38 44 49 46 45 44 36 38 37 38 36 35 34 32 29 29 29 27 27 27 28 28 29 31 32 33 34 36 38 40 42 43
34 32 35 36 33 34 28 25 28 30 36 35 42 38 37 43 40 39 38 41 39 40 38 38 37 36 35 35 33 33 33 34 36 36 37 38 40 42 43 43 43 43 46
27 25 25 27 29 27 30 29 32 30 34 36 38 38 41 43 40 38 42 42 42 42 41 41 41 40 39 38 37 37 40 41 42 43 40 40 41 41 43 43 44 46 50
24 21 24 21 27 33 33 30 29 30 33 42 30 32 40 43 46 49 43 42 46 48 43 41 42 41 40 38 42 43 46 46 45 42 42 45 46 45 44 46 49 53 54
28 19 17 19 12 19 34 37 35 35 37 38 39 41 48 45 43 46 46 43 51 53 46 43 45 44 41 43 48 50 49 41 37 41 42 42 44 46 49 51 51 53 55
18 16 14 7 4 11 20 34 33 41 42 45 46 49 42 41 45 49 52 50 36 36 30 36 47 44 42 33 36 34 41 41 44 48 48 49 53 51 49 47 48 51 51
12 9 5 7 7 9 16 29 33 40 43 42 38 44 47 41 39 42 43 51 47 44 45 44 44 42 37 35 40 47 50 46 44 43 43 43 44 44 46 47 48 48 50
14 15 12 5 1 3 8 20 25 28 31 32 33 35 39 38 39 38 38 52 48 44 56 48 40 38 42 46 44 46 44 43 42 41 42 42 44 45 46 47 49 52 54
12 12 15 15 11 7 4 7 13 17 23 27 28 32 35 38 34 34 38 55 48 46 42 43 39 39 40 39 38 38 39 40 40 38 39 42 44 46 49 51 54 57 59
17 15 13 12 14 15 15 12 9 6 11 15 18 19 21 24 24 24 27 28 29 29 31 34 35 35 37 38 36 33 33 35 39 42 43 46 48 50 53 56 58 59 61
19 18 16 15 15 16 15 16 16 16 15 15 15 15 14 15 16 16 17 18 19 22 24 25 26 27 29 31 34 36 38 41 44 47 48 51 54 56 57 59 61 63 64
25 24 23 22 21 20 19 19 19 20 20 20 20 21 21 22 22 22 22 23 25 27 28 30 32 34 36 38 40 43 45 48 51 53 55 56 58 59 61 63 65 67 68
32 32 31 29 28 28 27 26 26 26 26 27 28 28 28 29 30 32 33 34 34 36 37 38 40 42 44 46 48 50 52 53 55 57 58 59 61 63 65 67 68 68 69
39 38 37 36 34 33 33 32 33 35 36 36 37 37 37 36 36 37 39 40 42 43 44 46 47 48 50 51 52 53 54 55 57 59 61 63 65 67 68 69 69 68 69
46 45 44 43 42 41 39 39 39 39 39 39 40 41 43 43 42 42 43 45 46 46 48 49 49 50 51 52 53 55 57 59 60 63 65 66 66 68 69 68 67 67 69
50 51 51 50 50 49 49 49 47 46 46 46 45 46 46 47 47 47 47 48 49 50 51 52 54 55 55 56 57 59 61 64 65 65 65 65 66 65 66 66 68 70 71

GFSGL_500_spd_123.txt.gz
Wind_Speed
52 53 54 55 59 60 62 60 54 47 49 47 48 46 43 41 42 39 37 38 38 35 35 32 29 27 26 25 25 27 26 29 26 32 35 28 32 38 41 37 39 42 42
57 57 63 66 63 63 64 60 58 52 49 49 48 47 46 41 43 40 37 40 39 35 36 33 30 28 27 27 27 28 32 30 32 27 34 35 38 34 37 37 41 41 40
43 49 44 41 47 52 51 54 54 52 50 52 50 45 45 43 42 42 38 40 41 38 37 34 32 29 28 29 27 29 32 31 28 23 23 40 41 35 31 37 35 35 35
40 40 44 47 45 44 44 46 45 48 48 47 48 42 43 45 43 43 41 40 41 40 38 35 34 29 29 28 29 25 31 30 28 27 25 20 26 38 35 35 32 30 30
44 46 47 40 43 44 42 42 42 46 47 49 47 46 44 47 44 44 41 40 41 41 40 36 34 29 31 28 26 22 26 29 30 29 29 25 22 30 36 33 31 29 28
44 46 44 39 37 39 42 45 41 41 39 42 46 46 44 44 43 45 42 42 43 44 41 37 34 30 31 29 27 25 23 25 28 33 30 27 28 22 31 30 32 27 28
31 34 35 39 36 36 37 36 40 39 40 42 42 42 42 44 46 46 44 44 45 45 42 39 34 31 33 33 31 25 21 23 27 34 34 30 30 24 24 29 28 29 29
31 33 34 34 37 38 43 40 37 38 39 39 40 42 43 43 44 47 45 44 46 45 43 41 35 32 33 33 33 24 23 26 22 29 33 36 34 35 28 25 25 27 32
35 36 35 35 36 36 38 39 36 36 36 37 40 41 42 44 44 48 47 45 46 45 44 39 36 33 32 33 33 26 25 26 21 16 19 24 25 24 21 24 23 24 27
35 35 35 35 34 34 37 39 39 40 41 43 43 45 46 48 49 50 50 46 47 45 43 40 36 35 33 32 29 24 22 23 24 22 21 21 21 23 25 27 31 32 34
35 37 36 37 38 38 37 39 40 42 45 47 48 50 52 50 41 47 41 46 44 43 43 39 36 37 36 33 31 27 24 23 22 22 24 25 27 29 30 32 33 34 36
38 38 39 38 40 41 41 43 46 46 48 47 42 43 47 48 57 62 62 46 46 45 42 40 38 39 39 37 35 32 31 28 28 29 29 30 31 32 34 36 36 38 40
37 36 39 42 41 43 42 45 45 40 39 36 26 28 41 50 54 46 37 40 49 46 40 42 41 38 42 40 39 37 36 33 34 34 34 33 39 41 43 44 45 45 45
32 31 26 28 34 34 37 39 37 36 36 37 32 30 30 47 36 40 47 49 48 45 42 40 44 43 42 40 39 37 35 36 37 38 39 39 41 44 47 49 47 47 46
29 32 33 33 29 26 27 32 37 37 35 37 28 34 30 30 38 30 41 47 44 47 45 48 46 42 46 45 46 36 35 36 37 43 50 52 51 44 41 43 43 45 45
23 21 24 30 25 20 20 19 31 42 37 36 37 43 38 41 40 44 35 44 49 45 55 41 44 47 52 47 44 37 33 35 33 38 36 35 36 41 43 45 45 47 52
17 14 17 19 17 16 8 9 19 31 39 36 40 36 41 39 39 41 44 40 37 47 52 39 34 35 36 44 40 40 38 44 44 40 39 43 42 38 41 47 52 53 51
17 16 15 18 14 9 12 11 2 11 23 29 35 39 39 43 42 45 50 43 48 48 41 34 45 39 37 42 42 45 43 47 51 46 49 46 47 47 50 50 47 46 46
18 18 17 17 18 16 11 7 10 10 8 18 26 33 38 39 41 44 46 45 41 41 42 44 52 50 52 49 43 44 46 47 47 46 48 45 42 43 43 42 43 44 48
19 18 18 18 19 19 18 17 13 8 12 15 17 19 24 28 33 34 36 37 40 39 45 49 50 44 47 47 45 44 45 48 45 45 43 38 35 37 41 44 46 49 52
25 24 23 22 21 20 20 18 18 19 16 13 13 17 20 27 29 31 34 36 37 39 42 45 44 41 42 42 42 42 41 38 38 36 36 37 39 42 46 49 52 54 57
28 28 28 27 27 26 26 25 22 20 20 21 20 19 19 19 18 18 19 21 25 28 29 31 30 28 26 26 28 29 31 33 36 38 41 43 46 49 52 54 56 57 58
34 33 33 33 33 32 32 30 28 27 26 25 25 25 26 26 26 26 26 26 27 27 27 28 28 29 32 35 37 39 40 43 45 47 49 51 53 54 55 56 58 60 61
38 38 38 39 39 38 38 37 36 33 31 30 30 29 30 30 31 31 33 34 34 35 35 36 37 39 41 43 45 46 47 49 50 50 52 53 54 56 58 59 61 62 65
43 44 46 46 46 46 46 45 44 43 42 40 38 38 38 38 38 38 38 38 38 39 41 43 44 45 46 48 49 50 50 51 52 54 56 57 58 58 60 62 64 66 67
48 48 49 50 50 50 50 49 49 49 49 49 48 48 47 47 46 46 46 46 46 46 46 47 48 49 50 52 53 54 56 57 58 59 59 59 59 61 62 64 66 67 69

GFSGL_500_spd_126.txt.gz
Wind_Speed
50 45 43 44 41 41 43 43 43 43 46 43 45 45 49 51 52 49 44 42 40 40 39 37 36 40 35 32 31 30 30 29 28 26 27 27 27 35 34 37 35 37 39
48 48 44 47 49 49 51 50 50 51 52 54 55 55 54 55 52 50 45 42 42 40 40 39 37 40 38 32 32 30 32 32 31 30 31 32 33 32 28 32 33 37 41
47 51 52 52 52 55 56 53 58 63 57 56 55 52 57 56 53 49 45 45 42 41 41 41 39 39 39 34 34 31 34 33 31 34 34 28 25 24 35 36 36 32 38
46 42 45 45 44 46 43 42 48 56 57 56 53 49 54 56 55 51 47 44 43 42 43 43 41 39 40 37 34 33 34 31 31 32 34 33 31 25 25 32 36 35 36
28 30 32 36 38 37 40 43 47 50 52 48 48 50 51 50 53 52 48 46 45 45 45 43 42 40 41 39 36 33 33 32 29 29 32 32 31 29 26 25 32 37 37
33 31 28 35 43 47 47 47 43 42 47 47 41 40 45 47 45 44 46 47 46 45 45 43 42 41 40 39 38 34 34 32 31 31 32 30 28 31 32 30 30 34 35
28 27 34 29 34 34 37 41 44 45 39 42 43 40 39 42 48 48 48 50 47 46 44 42 44 42 41 40 39 37 33 33 29 32 35 32 28 30 36 32 27 30 31
23 27 30 33 35 33 32 32 33 36 40 38 38 42 39 38 40 43 48 49 47 46 45 44 45 43 42 41 41 39 35 34 31 36 26 28 30 34 31 24 26 29 30
28 29 31 32 33 34 33 31 32 33 33 35 35 38 43 40 43 46 47 47 48 48 47 46 45 43 42 42 41 40 36 33 31 33 31 24 28 31 38 33 32 32 30
29 30 31 33 35 35 34 31 32 33 35 33 32 35 36 38 41 44 44 44 48 46 43 44 45 44 45 42 42 39 36 31 33 35 31 26 23 20 23 25 24 25 29
32 32 33 34 39 41 37 37 36 33 33 36 39 38 38 38 38 41 42 44 44 42 42 46 47 46 46 42 42 39 37 32 32 29 27 25 22 25 23 23 24 26 28
30 32 36 36 39 44 44 42 42 39 36 36 37 37 40 42 44 45 48 50 48 47 49 53 46 42 42 41 42 40 39 34 33 32 29 28 25 25 26 27 28 30 31
34 36 39 41 42 45 49 49 45 45 41 39 41 39 40 41 44 44 42 44 45 48 52 44 38 42 42 42 42 41 42 39 38 37 34 33 32 31 30 29 30 34 36
38 38 39 42 44 45 47 50 52 48 47 43 44 44 36 32 31 32 43 46 44 46 51 46 41 46 46 42 46 36 40 42 41 40 39 38 37 36 37 38 35 35 38
35 35 35 34 37 40 36 36 43 45 42 45 45 41 35 34 35 37 39 38 45 47 45 45 47 48 45 43 43 44 39 40 41 46 45 40 40 36 38 42 46 46 41
33 33 32 31 32 34 34 36 34 29 36 41 40 40 38 41 34 32 41 40 36 40 37 42 48 49 46 45 47 48 43 43 47 50 49 39 41 42 39 39 34 33 37
24 27 28 27 27 24 23 26 29 26 23 32 38 40 39 43 42 35 38 40 37 37 39 39 49 51 49 47 57 51 44 41 34 36 35 35 37 39 39 43 44 44 45
22 24 26 28 26 24 20 16 15 17 17 17 30 45 42 44 47 44 46 42 42 45 48 40 40 46 46 48 47 41 43 36 34 41 47 39 41 47 43 43 45 45 45
22 22 24 24 24 23 22 22 21 12 7 9 9 18 25 33 38 39 41 39 45 47 45 43 40 41 40 41 42 43 46 45 45 50 51 50 47 50 50 50 50 53 56
27 26 27 25 24 23 22 20 20 23 20 8 6 9 9 15 28 35 37 38 40 40 40 43 47 45 45 47 51 54 55 56 55 57 52 52 55 54 56 53 52 53 50
31 29 29 30 28 27 27 26 24 23 22 26 23 12 11 11 14 17 23 28 33 39 41 44 49 48 48 49 51 53 52 54 55 56 53 53 53 56 55 55 49 43 42
35 35 33 33 33 32 29 29 27 27 26 25 24 27 28 20 14 14 16 18 22 26 30 34 36 40 44 45 46 46 48 49 50 50 49 46 41 38 37 38 40 44 48
41 40 39 37 37 37 35 32 31 31 29 28 28 26 25 26 27 27 25 22 21 20 20 22 24 26 27 29 30 31 33 36 36 35 34 35 37 40 43 47 50 53 56
45 44 43 42 41 40 39 38 36 35 35 34 33 32 31 29 28 26 26 27 28 28 29 30 30 31 31 32 33 34 35 37 39 40 41 43 45 47 50 53 55 57 59
50 49 48 48 47 46 45 44 43 42 43 43 43 42 39 38 37 36 35 35 34 34 34 33 34 35 37 38 40 41 43 44 45 47 48 50 52 53 55 57 59 60 61
55 55 55 54 53 51 50 49 49 49 48 47 48 48 48 47 45 44 43 43 42 43 43 43 43 44 44 45 46 46 47 48 49 51 52 54 56 58 59 61 61 61 62

GFSGL_500_spd_132.txt.gz
Wind_Speed
51 59 58 57 57 51 52 54 56 53 52 52 52 54 53 51 52 48 39 42 41 41 43 44 41 37 37 37 39 39 35 34 32 30 28 31 30 32 29 27 30 32 32
69 63 56 53 58 53 52 54 51 53 59 55 50 49 45 42 43 39 42 44 44 46 45 46 44 44 44 41 40 41 39 36 36 33 31 31 31 32 33 31 30 33 33
58 59 61 61 60 56 51 60 60 56 49 48 53 45 43 42 41 44 46 46 45 46 47 48 48 49 46 46 44 45 42 40 38 36 33 32 32 33 33 33 31 34 33
44 52 50 55 51 44 45 49 49 44 42 41 45 47 44 44 44 48 47 47 49 48 49 49 50 51 52 50 47 46 45 44 41 38 35 34 32 33 34 33 33 31 33
36 36 40 41 42 48 48 46 47 43 38 41 43 50 50 50 49 49 52 51 48 53 54 53 52 51 54 54 49 47 47 46 43 39 37 36 34 34 36 35 34 31 32
43 38 42 40 46 34 42 42 44 36 30 32 35 39 42 46 47 51 50 50 47 45 47 50 51 52 51 52 47 50 48 46 44 41 38 38 34 35 36 37 36 34 31
28 22 25 24 26 28 29 29 28 28 29 30 34 38 43 47 49 50 53 53 50 48 49 50 46 49 48 49 49 50 50 47 46 42 40 38 37 37 38 37 37 36 32
21 22 21 25 26 24 28 29 32 33 33 31 32 33 34 36 40 47 50 55 56 53 51 53 49 47 48 46 50 53 50 41 42 42 41 40 39 38 39 39 39 38 36
18 19 21 28 22 21 25 28 31 34 32 31 30 31 32 33 35 39 41 43 50 52 50 51 50 48 46 45 47 47 47 45 45 43 42 41 40 40 40 40 38 40 37
8 11 15 17 21 24 27 30 28 27 28 30 31 32 32 37 38 35 38 39 41 49 51 50 48 48 46 48 45 44 45 39 42 44 43 43 40 42 41 40 39 39 37
14 16 19 22 24 25 26 26 29 31 32 33 34 34 35 35 34 40 47 40 41 41 50 52 50 47 44 47 49 47 37 46 53 43 45 44 41 42 41 42 39 40 38
18 20 22 25 26 27 28 30 31 32 32 34 35 40 42 41 38 38 37 41 44 42 41 49 50 47 46 43 43 45 45 46 49 48 47 46 42 42 41 42 40 40 38
22 24 27 29 29 30 32 33 33 35 36 36 37 41 45 47 48 45 43 40 40 45 45 44 45 48 49 46 47 52 46 46 50 49 46 43 43 43 43 42 41 40 39
32 33 34 36 37 38 38 40 41 42 45 48 47 47 47 52 54 54 48 47 43 41 42 44 42 45 44 45 48 47 54 46 45 47 47 47 47 45 44 43 44 42 40
40 40 41 41 40 40 41 41 40 40 41 44 48 49 54 56 55 54 57 53 49 45 42 42 45 45 45 49 47 45 42 42 47 48 51 49 49 45 45 45 45 44 43
43 43 44 44 44 44 44 44 42 42 44 46 47 49 50 46 46 50 52 49 43 45 43 40 42 47 43 45 51 51 48 45 47 58 54 49 51 50 47 45 46 46 46
39 41 42 42 42 42 42 42 41 42 42 42 40 40 41 39 37 39 42 42 43 43 45 43 41 47 49 49 47 49 52 55 56 50 54 53 53 50 45 51 49 47 48
39 38 39 38 37 39 37 36 35 33 31 27 26 27 30 34 35 30 30 36 40 44 46 45 48 50 47 49 43 43 43 51 49 57 49 58 53 53 49 49 52 51 51
36 36 38 38 37 35 36 34 32 30 27 25 22 21 24 24 23 24 23 25 42 53 49 50 53 56 56 49 47 49 51 53 54 56 57 57 56 54 48 52 51 51 52
37 37 37 37 37 37 33 33 35 34 32 29 26 25 25 26 26 20 16 19 19 30 50 46 47 51 50 49 47 49 49 49 45 47 47 50 51 54 55 51 51 53 54
41 41 41 39 38 38 37 38 35 34 34 32 31 30 28 27 26 27 25 17 12 14 16 35 40 51 53 49 47 50 48 48 51 49 51 50 49 55 55 52 55 58 60
44 47 47 46 46 44 40 38 38 38 36 36 35 35 33 31 30 28 27 26 26 17 13 14 19 25 34 42 49 51 51 52 54 54 53 56 55 58 59 59 60 63 64
46 46 46 49 50 49 48 46 44 42 41 40 40 40 39 37 35 33 30 28 25 27 29 23 16 18 20 22 25 30 38 44 50 53 56 59 60 61 61 61 62 61 60
42 45 48 49 48 49 52 52 51 49 48 46 45 44 43 43 42 41 38 35 32 30 28 28 31 28 23 22 23 22 23 26 30 33 36 39 40 42 43 43 43 43 43
31 35 40 44 48 50 51 51 52 54 55 53 52 50 49 47 46 46 46 44 42 39 37 35 33 32 32 34 34 31 28 28 28 28 29 31 32 33 34 35 35 36 37
30 29 30 32 37 42 46 50 53 54 54 55 56 57 56 54 53 52 51 50 49 48 46 44 41 40 40 38 38 38 38 38 38 38 38 37 37 38 38 39 39 40 42